| time (UTC) | temp C | wind direction | speed KPH | gust KPH | rain 1hr cm | rain 24hr cm | rain mn cm | humidity % | barometer mb |
| 20260504110704 | 16 | 302 | 14.5 | 38.6 | 0.00 | 0.08 | 0.00 | 44 | 1018.2 |
| 20260504110605 | 17 | 349 | 14.5 | 38.6 | 0.00 | 0.08 | 0.00 | 44 | 1018.2 |
| 20260504110503 | 17 | 326 | 14.5 | 38.6 | 0.00 | 0.08 | 0.00 | 45 | 1018.2 |
| 20260504110402 | 17 | 330 | 14.5 | 27.4 | 0.00 | 0.08 | 0.00 | 44 | 1018.2 |
| 20260504110302 | 17 | 353 | 14.5 | 27.4 | 0.00 | 0.08 | 0.00 | 44 | 1018.2 |
| 20260504110203 | 17 | 333 | 16.1 | 27.4 | 0.00 | 0.08 | 0.00 | 45 | 1018.3 |
| 20260504110103 | 16 | 269 | 16.1 | 27.4 | 0.00 | 0.08 | 0.00 | 44 | 1018.2 |
| 20260504100545 | 16 | 283 | 17.7 | 35.4 | 0.00 | 0.08 | 0.00 | 45 | 1018.4 |
| 20260504100445 | 16 | 293 | 17.7 | 35.4 | 0.00 | 0.08 | 0.00 | 45 | 1018.4 |
| 20260504100349 | 16 | 348 | 17.7 | 33.8 | 0.00 | 0.08 | 0.00 | 46 | 1018.4 |
| 20260504100245 | 16 | 280 | 17.7 | 33.8 | 0.00 | 0.08 | 0.00 | 46 | 1018.4 |
| 20260504100144 | 16 | 307 | 17.7 | 33.8 | 0.00 | 0.08 | 0.00 | 45 | 1018.4 |
| 20260504090132 | 16 | 303 | 12.9 | 29.0 | 0.00 | 0.10 | 0.00 | 48 | 1018.5 |
| 20260504082004 | 15 | 297 | 14.5 | 33.8 | 0.00 | 0.10 | 0.00 | 47 | 1018.3 |
| 20260504081904 | 15 | 280 | 14.5 | 32.2 | 0.00 | 0.10 | 0.00 | 47 | 1018.2 |
| 20260504081805 | 15 | 259 | 12.9 | 32.2 | 0.00 | 0.10 | 0.00 | 47 | 1018.3 |
| 20260504081706 | 15 | 307 | 12.9 | 32.2 | 0.00 | 0.10 | 0.00 | 47 | 1018.3 |
| 20260504081603 | 15 | 14 | 12.9 | 32.2 | 0.00 | 0.10 | 0.00 | 47 | 1018.2 |
| 20260504081503 | 15 | 10 | 12.9 | 32.2 | 0.00 | 0.10 | 0.00 | 47 | 1018.3 |
| 20260504081405 | 15 | 295 | 12.9 | 33.8 | 0.00 | 0.10 | 0.00 | 47 | 1018.2 |
| 20260504081305 | 15 | 336 | 12.9 | 33.8 | 0.00 | 0.10 | 0.00 | 47 | 1018.3 |
| 20260504081203 | 15 | 344 | 12.9 | 33.8 | 0.00 | 0.10 | 0.00 | 47 | 1018.3 |
| 20260504081103 | 15 | 324 | 14.5 | 33.8 | 0.00 | 0.10 | 0.00 | 48 | 1018.1 |
| 20260504081003 | 15 | 320 | 14.5 | 37.0 | 0.00 | 0.10 | 0.00 | 48 | 1018.1 |
| 20260504080904 | 15 | 45 | 14.5 | 37.0 | 0.00 | 0.10 | 0.00 | 48 | 1018.2 |
| 20260504080803 | 15 | 0 | 14.5 | 37.0 | 0.00 | 0.10 | 0.00 | 49 | 1018.1 |
| 20260504080704 | 15 | 326 | 16.1 | 37.0 | 0.00 | 0.10 | 0.00 | 49 | 1018.1 |
| 20260504080605 | 15 | 325 | 16.1 | 37.0 | 0.00 | 0.10 | 0.00 | 49 | 1018.1 |
| 20260504080504 | 15 | 272 | 14.5 | 37.0 | 0.00 | 0.10 | 0.00 | 49 | 1018.1 |
| 20260504080403 | 15 | 331 | 14.5 | 37.0 | 0.00 | 0.10 | 0.00 | 50 | 1017.9 |
| 20260504080303 | 15 | 353 | 14.5 | 37.0 | 0.00 | 0.10 | 0.00 | 50 | 1018.0 |
| 20260504080200 | 15 | 22 | 14.5 | 37.0 | 0.00 | 0.10 | 0.00 | 50 | 1018.2 |
| 20260504070332 | 15 | 340 | 16.1 | 37.0 | 0.00 | 0.10 | 0.00 | 49 | 1017.6 |
| 20260504070231 | 15 | 343 | 16.1 | 35.4 | 0.00 | 0.10 | 0.00 | 50 | 1017.6 |
| 20260504070132 | 15 | 322 | 16.1 | 35.4 | 0.00 | 0.10 | 0.00 | 51 | 1017.5 |
| 20260504060204 | 14 | 307 | 12.9 | 27.4 | 0.00 | 0.10 | 0.00 | 55 | 1017.0 |
| 20260504060109 | 14 | 33 | 12.9 | 27.4 | 0.00 | 0.10 | 0.00 | 55 | 1016.9 |
| 20260504050706 | 13 | 284 | 14.5 | 27.4 | 0.00 | 0.10 | 0.00 | 57 | 1016.7 |
| 20260504050605 | 13 | 10 | 14.5 | 30.6 | 0.00 | 0.10 | 0.00 | 56 | 1016.6 |
| 20260504050504 | 13 | 14 | 14.5 | 30.6 | 0.00 | 0.10 | 0.00 | 56 | 1016.7 |
| 20260504050404 | 13 | 355 | 14.5 | 30.6 | 0.00 | 0.10 | 0.00 | 56 | 1016.6 |
| 20260504050303 | 13 | 338 | 12.9 | 30.6 | 0.00 | 0.10 | 0.00 | 57 | 1016.5 |
| 20260504050203 | 13 | 350 | 12.9 | 30.6 | 0.00 | 0.10 | 0.00 | 57 | 1016.4 |
| 20260504050104 | 13 | 299 | 12.9 | 30.6 | 0.00 | 0.10 | 0.00 | 57 | 1016.5 |
| 20260504050006 | 13 | 318 | 12.9 | 30.6 | 0.00 | 0.10 | 0.00 | 57 | 1016.6 |
| 20260504045903 | 13 | 0 | 11.3 | 30.6 | 0.00 | 0.10 | 0.00 | 57 | 1016.4 |
| 20260504045804 | 13 | 349 | 11.3 | 30.6 | 0.00 | 0.10 | 0.00 | 57 | 1016.6 |
| 20260504045705 | 13 | 317 | 9.7 | 27.4 | 0.00 | 0.10 | 0.00 | 57 | 1016.5 |
| 20260504045605 | 13 | 14 | 11.3 | 27.4 | 0.00 | 0.10 | 0.00 | 57 | 1016.4 |
| 20260504045503 | 13 | 10 | 11.3 | 27.4 | 0.00 | 0.10 | 0.00 | 57 | 1016.4 |
| 20260504045403 | 13 | 317 | 11.3 | 27.4 | 0.00 | 0.10 | 0.00 | 57 | 1016.5 |
| 20260504045304 | 13 | 340 | 11.3 | 27.4 | 0.00 | 0.10 | 0.00 | 57 | 1016.4 |
| 20260504045204 | 13 | 285 | 11.3 | 27.4 | 0.00 | 0.10 | 0.00 | 57 | 1016.5 |
| 20260504045105 | 13 | 307 | 12.9 | 27.4 | 0.00 | 0.10 | 0.00 | 57 | 1016.3 |
| 20260504045004 | 13 | 72 | 12.9 | 27.4 | 0.00 | 0.10 | 0.00 | 57 | 1016.4 |
| 20260504044903 | 13 | 317 | 14.5 | 27.4 | 0.00 | 0.10 | 0.00 | 57 | 1016.5 |
| 20260504044802 | 13 | 277 | 14.5 | 27.4 | 0.00 | 0.10 | 0.00 | 57 | 1016.4 |
| 20260504044705 | 13 | 264 | 14.5 | 27.4 | 0.00 | 0.10 | 0.00 | 57 | 1016.4 |
| 20260504044605 | 13 | 328 | 14.5 | 27.4 | 0.00 | 0.10 | 0.00 | 57 | 1016.3 |
| 20260504044503 | 13 | 281 | 14.5 | 27.4 | 0.00 | 0.10 | 0.00 | 57 | 1016.3 |
| 20260504044408 | 13 | 337 | 14.5 | 27.4 | 0.00 | 0.10 | 0.00 | 57 | 1016.5 |
| 20260504044303 | 13 | 345 | 12.9 | 27.4 | 0.00 | 0.10 | 0.00 | 56 | 1016.5 |
| 20260504044204 | 13 | 325 | 12.9 | 27.4 | 0.00 | 0.10 | 0.00 | 56 | 1016.7 |
| 20260504044104 | 13 | 5 | 12.9 | 27.4 | 0.00 | 0.10 | 0.00 | 56 | 1016.5 |
| 20260504044004 | 13 | 279 | 12.9 | 29.0 | 0.00 | 0.10 | 0.00 | 56 | 1016.6 |
| 20260504043904 | 13 | 297 | 11.3 | 29.0 | 0.00 | 0.10 | 0.00 | 57 | 1016.6 |
| 20260504043803 | 13 | 307 | 12.9 | 29.0 | 0.00 | 0.10 | 0.00 | 57 | 1016.4 |
| 20260504043705 | 13 | 304 | 12.9 | 29.0 | 0.00 | 0.10 | 0.00 | 58 | 1016.6 |
| 20260504043604 | 13 | 351 | 12.9 | 29.0 | 0.00 | 0.10 | 0.00 | 58 | 1016.4 |
| 20260504043506 | 13 | 337 | 12.9 | 29.0 | 0.00 | 0.10 | 0.00 | 58 | 1016.4 |
| 20260504043403 | 13 | 328 | 12.9 | 29.0 | 0.00 | 0.10 | 0.00 | 58 | 1016.3 |
| 20260504043303 | 13 | 291 | 12.9 | 29.0 | 0.00 | 0.10 | 0.00 | 58 | 1016.4 |
| 20260504043204 | 13 | 33 | 12.9 | 29.0 | 0.00 | 0.10 | 0.00 | 58 | 1016.7 |
| 20260504043105 | 13 | 307 | 12.9 | 29.0 | 0.00 | 0.10 | 0.00 | 59 | 1016.5 |
| 20260504043004 | 13 | 307 | 12.9 | 27.4 | 0.00 | 0.10 | 0.00 | 59 | 1016.4 |
| 20260504042904 | 13 | 314 | 12.9 | 27.4 | 0.00 | 0.10 | 0.00 | 59 | 1016.4 |
| 20260504042804 | 13 | 314 | 12.9 | 27.4 | 0.00 | 0.10 | 0.00 | 59 | 1016.5 |
| 20260504042706 | 13 | 334 | 11.3 | 27.4 | 0.00 | 0.10 | 0.00 | 59 | 1016.4 |
| 20260504042603 | 13 | 331 | 12.9 | 27.4 | 0.00 | 0.10 | 0.00 | 58 | 1016.5 |
| 20260504042504 | 13 | 5 | 12.9 | 33.8 | 0.00 | 0.10 | 0.00 | 58 | 1016.6 |
| 20260504042404 | 13 | 311 | 12.9 | 33.8 | 0.00 | 0.10 | 0.00 | 58 | 1016.3 |
| 20260504042304 | 13 | 20 | 12.9 | 35.4 | 0.00 | 0.10 | 0.00 | 59 | 1016.4 |
| 20260504042204 | 13 | 10 | 12.9 | 35.4 | 0.00 | 0.10 | 0.00 | 58 | 1016.6 |
| 20260504042118 | 13 | 351 | 12.9 | 35.4 | 0.00 | 0.10 | 0.00 | 58 | 1016.4 |
| 20260504042002 | 13 | 348 | 12.9 | 35.4 | 0.00 | 0.10 | 0.00 | 58 | 1016.5 |
| 20260504041902 | 13 | 299 | 12.9 | 40.2 | 0.00 | 0.10 | 0.00 | 58 | 1016.6 |
| 20260504041806 | 13 | 319 | 12.9 | 40.2 | 0.00 | 0.10 | 0.00 | 58 | 1016.4 |
| 20260504041704 | 13 | 300 | 14.5 | 40.2 | 0.00 | 0.10 | 0.00 | 58 | 1016.5 |
| 20260504041605 | 13 | 0 | 14.5 | 40.2 | 0.00 | 0.10 | 0.00 | 58 | 1016.6 |
| 20260504041504 | 13 | 308 | 14.5 | 40.2 | 0.00 | 0.10 | 0.00 | 58 | 1016.3 |
| 20260504041403 | 13 | 316 | 12.9 | 40.2 | 0.00 | 0.10 | 0.00 | 58 | 1016.4 |
| 20260504041302 | 13 | 332 | 12.9 | 40.2 | 0.00 | 0.10 | 0.00 | 58 | 1016.2 |
| 20260504041204 | 13 | 270 | 14.5 | 40.2 | 0.00 | 0.10 | 0.00 | 59 | 1016.3 |
| 20260504041104 | 13 | 351 | 14.5 | 40.2 | 0.00 | 0.10 | 0.00 | 59 | 1016.2 |
| 20260504041006 | 13 | 277 | 12.9 | 40.2 | 0.00 | 0.10 | 0.00 | 59 | 1016.2 |
| 20260504040904 | 13 | 297 | 12.9 | 32.2 | 0.00 | 0.10 | 0.00 | 59 | 1016.3 |
| 20260504040804 | 13 | 307 | 12.9 | 32.2 | 0.00 | 0.10 | 0.00 | 60 | 1016.3 |
| 20260504040705 | 13 | 334 | 12.9 | 32.2 | 0.00 | 0.10 | 0.00 | 60 | 1016.4 |
| 20260504040605 | 13 | 264 | 12.9 | 30.6 | 0.00 | 0.10 | 0.00 | 60 | 1016.1 |
| 20260504040504 | 13 | 316 | 14.5 | 30.6 | 0.00 | 0.10 | 0.00 | 60 | 1016.2 |
| 20260504040402 | 13 | 18 | 14.5 | 30.6 | 0.00 | 0.10 | 0.00 | 60 | 1016.1 |
| 20260504040304 | 13 | 303 | 14.5 | 30.6 | 0.00 | 0.10 | 0.00 | 60 | 1016.0 |
| 20260504040203 | 13 | 279 | 14.5 | 33.8 | 0.00 | 0.10 | 0.00 | 60 | 1016.0 |
| 20260504040108 | 13 | 288 | 14.5 | 33.8 | 0.00 | 0.10 | 0.00 | 59 | 1016.0 |
| 20260504040004 | 13 | 5 | 14.5 | 33.8 | 0.00 | 0.10 | 0.00 | 59 | 1015.9 |
| 20260504035903 | 13 | 332 | 14.5 | 33.8 | 0.00 | 0.10 | 0.00 | 59 | 1015.9 |
| 20260504035804 | 13 | 347 | 16.1 | 33.8 | 0.00 | 0.10 | 0.00 | 59 | 1015.9 |
| 20260504035705 | 13 | 0 | 16.1 | 33.8 | 0.00 | 0.10 | 0.00 | 59 | 1015.9 |
| 20260504035604 | 13 | 334 | 16.1 | 33.8 | 0.00 | 0.10 | 0.00 | 58 | 1015.9 |
| 20260504035504 | 13 | 282 | 14.5 | 33.8 | 0.00 | 0.10 | 0.00 | 58 | 1015.8 |
| 20260504035405 | 13 | 278 | 14.5 | 33.8 | 0.00 | 0.10 | 0.00 | 58 | 1015.8 |
| 20260504035308 | 13 | 332 | 14.5 | 33.8 | 0.00 | 0.10 | 0.00 | 58 | 1015.8 |
| 20260504035205 | 13 | 280 | 14.5 | 33.8 | 0.00 | 0.10 | 0.00 | 58 | 1015.9 |
| 20260504035105 | 13 | 321 | 14.5 | 33.8 | 0.00 | 0.10 | 0.00 | 58 | 1015.9 |
| 20260504035004 | 13 | 28 | 14.5 | 33.8 | 0.00 | 0.10 | 0.00 | 58 | 1015.8 |
| 20260504034904 | 13 | 332 | 14.5 | 33.8 | 0.00 | 0.10 | 0.00 | 58 | 1015.9 |
| 20260504034805 | 13 | 329 | 14.5 | 33.8 | 0.00 | 0.10 | 0.00 | 58 | 1015.9 |
| 20260504034705 | 13 | 311 | 12.9 | 29.0 | 0.00 | 0.10 | 0.00 | 60 | 1015.9 |
| 20260504034603 | 13 | 334 | 12.9 | 25.7 | 0.00 | 0.10 | 0.00 | 60 | 1015.7 |
| 20260504034503 | 13 | 330 | 14.5 | 29.0 | 0.00 | 0.10 | 0.00 | 61 | 1015.7 |
| 20260504034405 | 13 | 29 | 12.9 | 32.2 | 0.00 | 0.10 | 0.00 | 61 | 1015.7 |
| 20260504034304 | 13 | 283 | 12.9 | 32.2 | 0.00 | 0.10 | 0.00 | 61 | 1015.6 |
| 20260504034204 | 13 | 317 | 12.9 | 32.2 | 0.00 | 0.10 | 0.00 | 60 | 1015.7 |
| 20260504034104 | 13 | 354 | 12.9 | 32.2 | 0.00 | 0.10 | 0.00 | 60 | 1015.8 |
| 20260504034002 | 13 | 266 | 12.9 | 32.2 | 0.00 | 0.10 | 0.00 | 60 | 1015.7 |
| 20260504033902 | 13 | 332 | 12.9 | 32.2 | 0.00 | 0.10 | 0.00 | 60 | 1015.8 |
| 20260504033804 | 13 | 293 | 12.9 | 32.2 | 0.00 | 0.10 | 0.00 | 60 | 1015.8 |
| 20260504033705 | 13 | 287 | 11.3 | 32.2 | 0.00 | 0.10 | 0.00 | 61 | 1015.6 |
| 20260504033608 | 13 | 330 | 11.3 | 32.2 | 0.00 | 0.10 | 0.00 | 61 | 1015.6 |
| 20260504033504 | 13 | 302 | 9.7 | 30.6 | 0.00 | 0.10 | 0.00 | 61 | 1015.5 |
| 20260504033403 | 13 | 309 | 9.7 | 30.6 | 0.00 | 0.10 | 0.00 | 61 | 1015.6 |
| 20260504033303 | 13 | 318 | 9.7 | 30.6 | 0.00 | 0.10 | 0.00 | 61 | 1015.6 |
| 20260504033203 | 13 | 49 | 9.7 | 30.6 | 0.00 | 0.10 | 0.00 | 61 | 1015.7 |
| 20260504033104 | 13 | 5 | 9.7 | 30.6 | 0.00 | 0.10 | 0.00 | 61 | 1015.6 |
| 20260504033002 | 13 | 295 | 9.7 | 30.6 | 0.00 | 0.10 | 0.00 | 61 | 1015.6 |
| 20260504032902 | 13 | 322 | 9.7 | 30.6 | 0.00 | 0.10 | 0.00 | 61 | 1015.7 |
| 20260504032804 | 13 | 330 | 9.7 | 30.6 | 0.00 | 0.10 | 0.00 | 61 | 1015.7 |
| 20260504032705 | 13 | 298 | 9.7 | 24.1 | 0.00 | 0.10 | 0.00 | 61 | 1015.6 |
| 20260504032604 | 13 | 318 | 11.3 | 24.1 | 0.00 | 0.10 | 0.00 | 61 | 1015.6 |
| 20260504032503 | 13 | 24 | 12.9 | 24.1 | 0.00 | 0.10 | 0.00 | 60 | 1015.6 |
| 20260504032404 | 13 | 50 | 14.5 | 37.0 | 0.00 | 0.10 | 0.00 | 60 | 1015.6 |
| 20260504032304 | 13 | 355 | 14.5 | 37.0 | 0.00 | 0.10 | 0.00 | 60 | 1015.6 |
| 20260504032203 | 13 | 278 | 16.1 | 37.0 | 0.00 | 0.10 | 0.00 | 60 | 1015.6 |
| 20260504032104 | 13 | 310 | 16.1 | 37.0 | 0.00 | 0.10 | 0.00 | 60 | 1015.6 |
| 20260504032003 | 13 | 331 | 16.1 | 37.0 | 0.00 | 0.10 | 0.00 | 60 | 1015.7 |
| 20260504031904 | 13 | 15 | 16.1 | 37.0 | 0.00 | 0.10 | 0.00 | 60 | 1015.6 |
| 20260504031804 | 13 | 310 | 16.1 | 37.0 | 0.00 | 0.10 | 0.00 | 60 | 1015.6 |
| 20260504031704 | 13 | 315 | 17.7 | 37.0 | 0.00 | 0.10 | 0.00 | 60 | 1015.7 |
| 20260504031604 | 13 | 31 | 16.1 | 37.0 | 0.00 | 0.10 | 0.00 | 60 | 1015.7 |
| 20260504031503 | 13 | 284 | 16.1 | 37.0 | 0.00 | 0.10 | 0.00 | 60 | 1015.6 |
| 20260504031404 | 13 | 338 | 14.5 | 35.4 | 0.00 | 0.10 | 0.00 | 60 | 1015.6 |
| 20260504031304 | 13 | 299 | 14.5 | 35.4 | 0.00 | 0.10 | 0.00 | 60 | 1015.8 |
| 20260504031203 | 13 | 307 | 12.9 | 35.4 | 0.00 | 0.10 | 0.00 | 60 | 1015.7 |
| 20260504031102 | 13 | 266 | 12.9 | 35.4 | 0.00 | 0.10 | 0.00 | 60 | 1015.6 |
| 20260504031005 | 13 | 0 | 12.9 | 35.4 | 0.00 | 0.10 | 0.00 | 60 | 1015.7 |
| 20260504030904 | 13 | 353 | 12.9 | 35.4 | 0.00 | 0.10 | 0.00 | 60 | 1015.6 |
| 20260504030803 | 13 | 27 | 12.9 | 35.4 | 0.00 | 0.10 | 0.00 | 61 | 1015.6 |
| 20260504030704 | 13 | 279 | 11.3 | 30.6 | 0.00 | 0.10 | 0.00 | 60 | 1015.6 |
| 20260504030603 | 13 | 285 | 12.9 | 25.7 | 0.00 | 0.10 | 0.00 | 60 | 1015.5 |
| 20260504030503 | 13 | 270 | 12.9 | 25.7 | 0.00 | 0.10 | 0.00 | 60 | 1015.6 |
| 20260504030404 | 13 | 329 | 14.5 | 35.4 | 0.00 | 0.10 | 0.00 | 60 | 1015.6 |
| 20260504030302 | 13 | 332 | 14.5 | 35.4 | 0.00 | 0.10 | 0.00 | 60 | 1015.6 |
| 20260504030206 | 13 | 45 | 16.1 | 35.4 | 0.00 | 0.10 | 0.00 | 59 | 1015.7 |
| 20260504030104 | 13 | 282 | 17.7 | 35.4 | 0.00 | 0.10 | 0.00 | 59 | 1015.7 |
| 20260504030007 | 13 | 336 | 19.3 | 37.0 | 0.00 | 0.10 | 0.00 | 59 | 1015.6 |
| 20260504025904 | 13 | 307 | 19.3 | 37.0 | 0.00 | 0.10 | 0.00 | 59 | 1015.7 |
| 20260504025802 | 13 | 0 | 19.3 | 37.0 | 0.00 | 0.10 | 0.00 | 59 | 1015.6 |
| 20260504025705 | 13 | 292 | 20.9 | 37.0 | 0.00 | 0.10 | 0.00 | 59 | 1015.6 |
| 20260504025604 | 13 | 299 | 20.9 | 37.0 | 0.00 | 0.10 | 0.00 | 58 | 1015.6 |
| 20260504025502 | 13 | 309 | 20.9 | 37.0 | 0.00 | 0.10 | 0.00 | 58 | 1015.6 |
| 20260504025402 | 13 | 336 | 20.9 | 37.0 | 0.00 | 0.13 | 0.00 | 58 | 1015.5 |
| 20260504025306 | 13 | 301 | 20.9 | 37.0 | 0.00 | 0.13 | 0.00 | 58 | 1015.8 |
| 20260504025204 | 13 | 330 | 20.9 | 37.0 | 0.00 | 0.13 | 0.00 | 58 | 1015.8 |
| 20260504025103 | 13 | 345 | 20.9 | 37.0 | 0.00 | 0.13 | 0.00 | 59 | 1015.8 |
| 20260504025004 | 13 | 319 | 20.9 | 37.0 | 0.00 | 0.13 | 0.00 | 59 | 1015.6 |
| 20260504024904 | 13 | 292 | 19.3 | 37.0 | 0.00 | 0.13 | 0.00 | 60 | 1015.6 |
| 20260504024803 | 13 | 341 | 17.7 | 37.0 | 0.00 | 0.13 | 0.00 | 60 | 1015.7 |
| 20260504024705 | 13 | 5 | 17.7 | 37.0 | 0.00 | 0.13 | 0.00 | 60 | 1015.6 |
| 20260504024602 | 13 | 31 | 16.1 | 37.0 | 0.00 | 0.13 | 0.00 | 60 | 1015.6 |
| 20260504024504 | 13 | 331 | 16.1 | 37.0 | 0.00 | 0.13 | 0.00 | 60 | 1015.6 |
| 20260504024403 | 13 | 324 | 14.5 | 37.0 | 0.00 | 0.13 | 0.00 | 59 | 1015.6 |
| 20260504024303 | 13 | 316 | 14.5 | 33.8 | 0.00 | 0.13 | 0.00 | 59 | 1015.6 |
| 20260504024204 | 13 | 331 | 12.9 | 33.8 | 0.00 | 0.13 | 0.00 | 60 | 1015.7 |
| 20260504024104 | 13 | 315 | 12.9 | 33.8 | 0.00 | 0.13 | 0.00 | 60 | 1015.6 |
| 20260504024003 | 13 | 332 | 12.9 | 30.6 | 0.00 | 0.13 | 0.00 | 60 | 1015.6 |
| 20260504023903 | 13 | 353 | 14.5 | 37.0 | 0.00 | 0.13 | 0.00 | 60 | 1015.7 |
| 20260504023803 | 13 | 256 | 14.5 | 37.0 | 0.00 | 0.13 | 0.00 | 60 | 1015.6 |
| 20260504023705 | 13 | 301 | 16.1 | 37.0 | 0.00 | 0.13 | 0.00 | 60 | 1015.6 |
| 20260504023605 | 13 | 264 | 16.1 | 38.6 | 0.00 | 0.13 | 0.00 | 60 | 1015.6 |
| 20260504023504 | 13 | 19 | 17.7 | 38.6 | 0.00 | 0.13 | 0.00 | 60 | 1015.7 |
| 20260504023404 | 13 | 315 | 17.7 | 38.6 | 0.00 | 0.13 | 0.00 | 60 | 1015.7 |
| 20260504023304 | 13 | 329 | 17.7 | 38.6 | 0.00 | 0.13 | 0.00 | 60 | 1015.6 |
| 20260504023204 | 13 | 316 | 19.3 | 38.6 | 0.00 | 0.13 | 0.00 | 60 | 1015.6 |
| 20260504023104 | 13 | 334 | 19.3 | 38.6 | 0.00 | 0.13 | 0.00 | 59 | 1015.6 |
| 20260504023004 | 13 | 325 | 19.3 | 38.6 | 0.00 | 0.13 | 0.00 | 59 | 1015.7 |
| 20260504022903 | 13 | 318 | 19.3 | 38.6 | 0.00 | 0.13 | 0.00 | 59 | 1015.6 |
| 20260504022803 | 13 | 306 | 17.7 | 38.6 | 0.00 | 0.13 | 0.00 | 59 | 1015.7 |
| 20260504022658 | 13 | 338 | 19.3 | 38.6 | 0.00 | 0.13 | 0.00 | 60 | 1015.7 |
| 20260504022601 | 13 | 305 | 19.3 | 35.4 | 0.00 | 0.13 | 0.00 | 60 | 1015.7 |
| 20260504022457 | 13 | 0 | 19.3 | 35.4 | 0.00 | 0.13 | 0.00 | 60 | 1015.8 |
| 20260504022358 | 13 | 328 | 19.3 | 35.4 | 0.00 | 0.13 | 0.00 | 60 | 1015.7 |
| 20260504022258 | 13 | 332 | 19.3 | 41.8 | 0.00 | 0.13 | 0.00 | 60 | 1015.7 |
| 20260504022152 | 13 | 264 | 19.3 | 41.8 | 0.00 | 0.13 | 0.00 | 60 | 1015.8 |
| 20260504022052 | 13 | 311 | 19.3 | 41.8 | 0.00 | 0.13 | 0.00 | 60 | 1015.8 |
| 20260504021952 | 13 | 331 | 17.7 | 41.8 | 0.00 | 0.13 | 0.00 | 59 | 1015.6 |
| 20260504021852 | 13 | 289 | 17.7 | 41.8 | 0.00 | 0.13 | 0.00 | 59 | 1015.7 |
| 20260504021751 | 13 | 286 | 17.7 | 41.8 | 0.00 | 0.13 | 0.00 | 59 | 1015.8 |
| 20260504021646 | 13 | 328 | 17.7 | 41.8 | 0.00 | 0.13 | 0.00 | 59 | 1015.9 |
| 20260504021546 | 13 | 322 | 17.7 | 41.8 | 0.00 | 0.13 | 0.00 | 60 | 1015.7 |
| 20260504021445 | 13 | 351 | 17.7 | 41.8 | 0.00 | 0.13 | 0.00 | 60 | 1015.8 |
| 20260504021346 | 13 | 330 | 16.1 | 41.8 | 0.00 | 0.13 | 0.00 | 60 | 1015.7 |
| 20260504021246 | 13 | 318 | 16.1 | 32.2 | 0.00 | 0.13 | 0.00 | 59 | 1015.9 |
| 20260504021140 | 13 | 69 | 16.1 | 32.2 | 0.00 | 0.13 | 0.00 | 59 | 1015.9 |
| 20260504021039 | 13 | 330 | 16.1 | 32.2 | 0.00 | 0.13 | 0.00 | 58 | 1015.7 |
| 20260504020939 | 13 | 295 | 16.1 | 32.2 | 0.00 | 0.13 | 0.00 | 58 | 1015.6 |
| 20260504020840 | 13 | 334 | 16.1 | 35.4 | 0.00 | 0.13 | 0.00 | 58 | 1015.8 |
| 20260504020740 | 13 | 292 | 16.1 | 35.4 | 0.00 | 0.13 | 0.00 | 59 | 1015.8 |
| 20260504020634 | 13 | 319 | 16.1 | 35.4 | 0.00 | 0.13 | 0.00 | 59 | 1015.8 |
| 20260504020532 | 13 | 323 | 16.1 | 35.4 | 0.00 | 0.13 | 0.00 | 59 | 1015.8 |
| 20260504020433 | 13 | 320 | 17.7 | 35.4 | 0.00 | 0.13 | 0.00 | 59 | 1015.8 |
| 20260504020331 | 13 | 347 | 16.1 | 35.4 | 0.00 | 0.13 | 0.00 | 59 | 1015.8 |
| 20260504020232 | 13 | 310 | 17.7 | 35.4 | 0.00 | 0.13 | 0.00 | 59 | 1015.9 |
| 20260504020128 | 13 | 318 | 16.1 | 35.4 | 0.00 | 0.13 | 0.00 | 59 | 1015.8 |
| 20260504020030 | 13 | 311 | 16.1 | 35.4 | 0.00 | 0.13 | 0.00 | 58 | 1015.6 |
| 20260504015930 | 13 | 315 | 17.7 | 35.4 | 0.00 | 0.13 | 0.00 | 58 | 1015.8 |
| 20260504015829 | 13 | 276 | 16.1 | 35.4 | 0.00 | 0.13 | 0.00 | 58 | 1015.7 |
| 20260504015729 | 13 | 10 | 16.1 | 35.4 | 0.00 | 0.13 | 0.00 | 59 | 1015.9 |
| 20260504015630 | 13 | 291 | 16.1 | 35.4 | 0.00 | 0.13 | 0.00 | 59 | 1015.8 |
| 20260504015528 | 13 | 305 | 16.1 | 35.4 | 0.00 | 0.13 | 0.00 | 59 | 1015.9 |
| 20260504015429 | 13 | 317 | 16.1 | 29.0 | 0.00 | 0.13 | 0.00 | 59 | 1015.8 |
| 20260504015328 | 13 | 289 | 16.1 | 29.0 | 0.00 | 0.13 | 0.00 | 59 | 1015.9 |
| 20260504015229 | 13 | 305 | 16.1 | 29.0 | 0.00 | 0.13 | 0.00 | 59 | 1015.7 |
| 20260504015130 | 13 | 298 | 14.5 | 29.0 | 0.00 | 0.13 | 0.00 | 59 | 1015.9 |
| 20260504015030 | 13 | 334 | 14.5 | 29.0 | 0.00 | 0.13 | 0.00 | 58 | 1015.7 |
| 20260504014930 | 13 | 314 | 12.9 | 29.0 | 0.00 | 0.13 | 0.00 | 58 | 1015.9 |
| 20260504014829 | 13 | 292 | 12.9 | 29.0 | 0.00 | 0.13 | 0.00 | 58 | 1015.8 |
| 20260504014731 | 13 | 0 | 12.9 | 29.0 | 0.00 | 0.13 | 0.00 | 58 | 1015.9 |
| 20260504014632 | 13 | 297 | 12.9 | 29.0 | 0.00 | 0.13 | 0.00 | 58 | 1015.8 |
| 20260504014532 | 13 | 340 | 12.9 | 30.6 | 0.00 | 0.13 | 0.00 | 58 | 1015.8 |
| 20260504014430 | 13 | 320 | 12.9 | 30.6 | 0.00 | 0.13 | 0.00 | 58 | 1015.8 |
| 20260504014328 | 13 | 35 | 12.9 | 30.6 | 0.00 | 0.13 | 0.00 | 58 | 1015.8 |
| 20260504014229 | 13 | 308 | 12.9 | 30.6 | 0.00 | 0.13 | 0.00 | 58 | 1015.8 |
| 20260504014130 | 13 | 304 | 12.9 | 30.6 | 0.00 | 0.13 | 0.00 | 59 | 1015.8 |
| 20260504014029 | 12 | 18 | 12.9 | 35.4 | 0.00 | 0.13 | 0.00 | 59 | 1015.9 |
| 20260504013930 | 13 | 34 | 14.5 | 35.4 | 0.00 | 0.13 | 0.00 | 58 | 1015.8 |
| 20260504013829 | 13 | 269 | 16.1 | 35.4 | 0.00 | 0.13 | 0.00 | 58 | 1015.7 |
| 20260504013729 | 13 | 326 | 16.1 | 35.4 | 0.00 | 0.13 | 0.00 | 58 | 1015.7 |
| 20260504013630 | 12 | 344 | 16.1 | 35.4 | 0.00 | 0.13 | 0.00 | 58 | 1015.7 |
| 20260504013529 | 12 | 24 | 14.5 | 35.4 | 0.00 | 0.13 | 0.00 | 59 | 1015.9 |
| 20260504013430 | 12 | 347 | 16.1 | 35.4 | 0.00 | 0.13 | 0.00 | 59 | 1015.9 |
| 20260504013330 | 12 | 342 | 16.1 | 35.4 | 0.00 | 0.13 | 0.00 | 59 | 1015.9 |
| 20260504013231 | 13 | 310 | 16.1 | 35.4 | 0.00 | 0.13 | 0.00 | 59 | 1015.7 |
| 20260504013129 | 13 | 347 | 17.7 | 35.4 | 0.00 | 0.13 | 0.00 | 59 | 1015.7 |
| 20260504013029 | 13 | 342 | 16.1 | 33.8 | 0.00 | 0.13 | 0.00 | 59 | 1015.7 |
| 20260504012928 | 12 | 345 | 16.1 | 33.8 | 0.00 | 0.13 | 0.00 | 59 | 1015.8 |
| 20260504012828 | 13 | 300 | 16.1 | 33.8 | 0.00 | 0.13 | 0.00 | 58 | 1015.8 |
| 20260504012729 | 12 | 315 | 16.1 | 33.8 | 0.00 | 0.13 | 0.00 | 57 | 1015.8 |
| 20260504012630 | 12 | 28 | 16.1 | 33.8 | 0.00 | 0.13 | 0.00 | 57 | 1015.8 |
| 20260504012528 | 12 | 307 | 16.1 | 33.8 | 0.00 | 0.13 | 0.00 | 57 | 1015.8 |
| 20260504012429 | 13 | 316 | 16.1 | 33.8 | 0.00 | 0.13 | 0.00 | 57 | 1015.8 |
| 20260504012330 | 12 | 17 | 16.1 | 33.8 | 0.00 | 0.13 | 0.00 | 58 | 1015.8 |
| 20260504012230 | 12 | 307 | 16.1 | 41.8 | 0.00 | 0.13 | 0.00 | 58 | 1015.8 |
| 20260504012129 | 12 | 247 | 16.1 | 41.8 | 0.00 | 0.13 | 0.00 | 59 | 1015.9 |
| 20260504012030 | 12 | 322 | 16.1 | 41.8 | 0.00 | 0.13 | 0.00 | 59 | 1015.8 |
| 20260504011929 | 12 | 330 | 17.7 | 41.8 | 0.00 | 0.13 | 0.00 | 59 | 1015.9 |
| 20260504011828 | 12 | 313 | 16.1 | 41.8 | 0.00 | 0.13 | 0.00 | 58 | 1015.7 |
| 20260504011730 | 12 | 296 | 16.1 | 41.8 | 0.00 | 0.13 | 0.00 | 59 | 1015.6 |
| 20260504011632 | 12 | 303 | 16.1 | 41.8 | 0.00 | 0.13 | 0.00 | 59 | 1015.7 |
| 20260504011528 | 12 | 283 | 14.5 | 41.8 | 0.00 | 0.13 | 0.00 | 58 | 1015.7 |
| 20260504011429 | 12 | 327 | 14.5 | 41.8 | 0.00 | 0.13 | 0.00 | 58 | 1015.7 |
| 20260504011329 | 12 | 271 | 16.1 | 41.8 | 0.00 | 0.13 | 0.00 | 58 | 1015.7 |
| 20260504011230 | 12 | 318 | 14.5 | 38.6 | 0.00 | 0.13 | 0.00 | 58 | 1015.8 |
| 20260504011131 | 12 | 341 | 14.5 | 38.6 | 0.00 | 0.13 | 0.00 | 58 | 1015.9 |
| 20260504011028 | 12 | 10 | 14.5 | 38.6 | 0.00 | 0.13 | 0.00 | 58 | 1015.8 |
| 20260504010929 | 12 | 322 | 14.5 | 38.6 | 0.00 | 0.13 | 0.00 | 58 | 1015.7 |
| 20260504010828 | 12 | 349 | 12.9 | 38.6 | 0.00 | 0.13 | 0.00 | 58 | 1015.7 |
| 20260504010731 | 12 | 318 | 12.9 | 38.6 | 0.00 | 0.13 | 0.00 | 57 | 1015.7 |
| 20260504010631 | 12 | 275 | 12.9 | 38.6 | 0.00 | 0.13 | 0.00 | 57 | 1015.7 |
| 20260504010529 | 12 | 333 | 12.9 | 38.6 | 0.00 | 0.13 | 0.00 | 56 | 1015.8 |
| 20260504010429 | 12 | 287 | 12.9 | 38.6 | 0.00 | 0.13 | 0.00 | 57 | 1015.8 |
| 20260504010330 | 12 | 316 | 12.9 | 33.8 | 0.00 | 0.13 | 0.00 | 57 | 1015.9 |
| 20260504010230 | 12 | 288 | 11.3 | 33.8 | 0.00 | 0.13 | 0.00 | 58 | 1015.7 |
| 20260504010134 | 12 | 348 | 12.9 | 33.8 | 0.00 | 0.13 | 0.00 | 58 | 1015.7 |
| 20260504010029 | 12 | 296 | 12.9 | 33.8 | 0.00 | 0.13 | 0.00 | 58 | 1015.8 |
| 20260504005929 | 12 | 317 | 12.9 | 30.6 | 0.00 | 0.13 | 0.00 | 58 | 1015.8 |
| 20260504005829 | 12 | 265 | 12.9 | 30.6 | 0.00 | 0.13 | 0.00 | 58 | 1015.8 |
| 20260504005729 | 12 | 288 | 12.9 | 30.6 | 0.00 | 0.13 | 0.00 | 58 | 1015.8 |
| 20260504005632 | 12 | 93 | 12.9 | 30.6 | 0.00 | 0.13 | 0.00 | 59 | 1015.8 |
| 20260504005529 | 12 | 45 | 12.9 | 30.6 | 0.00 | 0.13 | 0.00 | 59 | 1015.9 |
| 20260504005429 | 12 | 34 | 14.5 | 30.6 | 0.00 | 0.13 | 0.00 | 59 | 1015.8 |
| 20260504005329 | 12 | 308 | 14.5 | 35.4 | 0.00 | 0.13 | 0.00 | 59 | 1015.8 |
| 20260504005228 | 13 | 282 | 12.9 | 35.4 | 0.00 | 0.13 | 0.00 | 60 | 1015.8 |
| 20260504005133 | 13 | 324 | 12.9 | 35.4 | 0.00 | 0.13 | 0.00 | 60 | 1015.8 |
| 20260504005029 | 13 | 349 | 12.9 | 35.4 | 0.00 | 0.13 | 0.00 | 59 | 1015.8 |
| 20260504004930 | 13 | 309 | 14.5 | 35.4 | 0.00 | 0.13 | 0.00 | 60 | 1015.8 |
| 20260504004831 | 13 | 18 | 14.5 | 35.4 | 0.00 | 0.13 | 0.00 | 60 | 1015.8 |
| 20260504004729 | 13 | 341 | 14.5 | 35.4 | 0.00 | 0.13 | 0.00 | 60 | 1015.7 |
| 20260504004633 | 13 | 0 | 14.5 | 35.4 | 0.00 | 0.13 | 0.00 | 60 | 1015.7 |
| 20260504004529 | 13 | 0 | 16.1 | 35.4 | 0.00 | 0.13 | 0.00 | 60 | 1015.6 |
| 20260504004430 | 13 | 313 | 16.1 | 35.4 | 0.00 | 0.13 | 0.00 | 60 | 1015.5 |
| 20260504004329 | 13 | 249 | 16.1 | 32.2 | 0.00 | 0.13 | 0.00 | 60 | 1015.6 |
| 20260504004229 | 13 | 300 | 16.1 | 32.2 | 0.00 | 0.13 | 0.00 | 60 | 1015.5 |
| 20260504004130 | 13 | 321 | 16.1 | 32.2 | 0.00 | 0.13 | 0.00 | 60 | 1015.7 |
| 20260504004029 | 13 | 303 | 16.1 | 32.2 | 0.00 | 0.13 | 0.00 | 60 | 1015.6 |
| 20260504003930 | 13 | 322 | 16.1 | 32.2 | 0.00 | 0.13 | 0.00 | 60 | 1015.6 |
| 20260504003830 | 13 | 325 | 16.1 | 32.2 | 0.00 | 0.13 | 0.00 | 60 | 1015.6 |
| 20260504003728 | 13 | 257 | 17.7 | 32.2 | 0.00 | 0.13 | 0.00 | 59 | 1015.6 |
| 20260504003630 | 13 | 304 | 17.7 | 32.2 | 0.00 | 0.13 | 0.00 | 59 | 1015.5 |
| 20260504003529 | 13 | 338 | 16.1 | 29.0 | 0.00 | 0.13 | 0.00 | 59 | 1015.6 |
| 20260504003430 | 13 | 337 | 16.1 | 29.0 | 0.00 | 0.13 | 0.00 | 59 | 1015.6 |
| 20260504003330 | 13 | 67 | 16.1 | 29.0 | 0.00 | 0.13 | 0.00 | 58 | 1015.8 |
| 20260504003230 | 13 | 48 | 17.7 | 29.0 | 0.00 | 0.13 | 0.00 | 58 | 1015.6 |
| 20260504003130 | 12 | 313 | 19.3 | 32.2 | 0.00 | 0.13 | 0.00 | 58 | 1015.5 |
| 20260504003029 | 13 | 299 | 19.3 | 32.2 | 0.00 | 0.13 | 0.00 | 58 | 1015.6 |
| 20260504002930 | 13 | 304 | 17.7 | 32.2 | 0.00 | 0.13 | 0.00 | 58 | 1015.5 |
| 20260504002830 | 13 | 320 | 17.7 | 32.2 | 0.00 | 0.13 | 0.00 | 58 | 1015.4 |
| 20260504002729 | 13 | 312 | 17.7 | 32.2 | 0.00 | 0.13 | 0.00 | 58 | 1015.6 |
| 20260504002631 | 13 | 275 | 17.7 | 32.2 | 0.00 | 0.13 | 0.00 | 57 | 1015.5 |
| 20260504002529 | 13 | 326 | 16.1 | 32.2 | 0.00 | 0.13 | 0.00 | 58 | 1015.6 |
| 20260504002429 | 13 | 284 | 16.1 | 32.2 | 0.00 | 0.13 | 0.00 | 58 | 1015.6 |
| 20260504002330 | 13 | 330 | 16.1 | 32.2 | 0.00 | 0.13 | 0.00 | 58 | 1015.6 |
| 20260504002229 | 13 | 347 | 14.5 | 32.2 | 0.00 | 0.13 | 0.00 | 58 | 1015.6 |
| 20260504002129 | 13 | 295 | 14.5 | 33.8 | 0.00 | 0.13 | 0.00 | 59 | 1015.5 |
| 20260504002029 | 13 | 349 | 14.5 | 33.8 | 0.00 | 0.13 | 0.00 | 58 | 1015.5 |
| 20260504001929 | 13 | 0 | 14.5 | 33.8 | 0.00 | 0.13 | 0.00 | 58 | 1015.6 |
| 20260504001830 | 13 | 248 | 14.5 | 33.8 | 0.00 | 0.13 | 0.00 | 58 | 1015.6 |
| 20260504001730 | 13 | 279 | 14.5 | 33.8 | 0.00 | 0.13 | 0.00 | 58 | 1015.6 |
| 20260504001631 | 13 | 325 | 14.5 | 33.8 | 0.00 | 0.13 | 0.00 | 58 | 1015.7 |
| 20260504001529 | 13 | 337 | 14.5 | 35.4 | 0.00 | 0.13 | 0.00 | 58 | 1015.7 |
| 20260504001428 | 13 | 341 | 14.5 | 35.4 | 0.00 | 0.13 | 0.00 | 58 | 1015.7 |
| 20260504001329 | 13 | 302 | 16.1 | 37.0 | 0.00 | 0.13 | 0.00 | 58 | 1015.7 |
| 20260504001230 | 13 | 309 | 16.1 | 37.0 | 0.00 | 0.13 | 0.00 | 57 | 1015.5 |
| 20260504001129 | 13 | 19 | 16.1 | 37.0 | 0.00 | 0.13 | 0.00 | 57 | 1015.6 |
| 20260504001029 | 13 | 311 | 16.1 | 37.0 | 0.00 | 0.13 | 0.00 | 57 | 1015.7 |
| 20260504000929 | 13 | 339 | 16.1 | 37.0 | 0.00 | 0.13 | 0.00 | 57 | 1015.7 |
| 20260504000830 | 13 | 272 | 16.1 | 37.0 | 0.00 | 0.13 | 0.00 | 57 | 1015.7 |
| 20260504000730 | 13 | 295 | 16.1 | 37.0 | 0.00 | 0.13 | 0.00 | 56 | 1015.7 |
| 20260504000629 | 13 | 280 | 17.7 | 37.0 | 0.00 | 0.15 | 0.00 | 56 | 1015.5 |
| 20260504000528 | 13 | 299 | 17.7 | 37.0 | 0.00 | 0.15 | 0.00 | 57 | 1015.7 |
| 20260504000430 | 13 | 297 | 17.7 | 37.0 | 0.00 | 0.15 | 0.00 | 57 | 1015.7 |
| 20260504000330 | 13 | 346 | 16.1 | 37.0 | 0.00 | 0.15 | 0.00 | 57 | 1015.8 |
| 20260504000230 | 13 | 319 | 16.1 | 33.8 | 0.00 | 0.15 | 0.00 | 58 | 1015.7 |
| 20260504000129 | 13 | 20 | 17.7 | 33.8 | 0.00 | 0.15 | 0.00 | 58 | 1015.7 |
| 20260504000030 | 13 | 23 | 17.7 | 33.8 | 0.00 | 0.15 | 0.00 | 59 | 1015.6 |
| 20260503235930 | 13 | 334 | 17.7 | 33.8 | 0.00 | 0.15 | 0.00 | 59 | 1015.7 |
| 20260503235828 | 13 | 299 | 17.7 | 33.8 | 0.00 | 0.15 | 0.00 | 59 | 1015.7 |
| 20260503235730 | 13 | 308 | 17.7 | 33.8 | 0.00 | 0.15 | 0.00 | 59 | 1015.6 |
| 20260503235631 | 13 | 324 | 17.7 | 33.8 | 0.00 | 0.15 | 0.00 | 58 | 1015.5 |
| 20260503235530 | 13 | 334 | 16.1 | 33.8 | 0.00 | 0.15 | 0.00 | 58 | 1015.5 |
| 20260503235428 | 13 | 311 | 17.7 | 33.8 | 0.00 | 0.15 | 0.00 | 58 | 1015.5 |
| 20260503235329 | 13 | 279 | 17.7 | 43.5 | 0.00 | 0.15 | 0.00 | 58 | 1015.6 |
| 20260503235230 | 13 | 316 | 17.7 | 43.5 | 0.00 | 0.15 | 0.00 | 58 | 1015.5 |
| 20260503235129 | 13 | 276 | 17.7 | 43.5 | 0.00 | 0.15 | 0.00 | 58 | 1015.5 |
| 20260503235030 | 13 | 306 | 17.7 | 43.5 | 0.00 | 0.15 | 0.00 | 58 | 1015.4 |
| 20260503234928 | 13 | 338 | 16.1 | 43.5 | 0.00 | 0.15 | 0.00 | 57 | 1015.5 |
| 20260503234828 | 13 | 296 | 16.1 | 43.5 | 0.00 | 0.15 | 0.00 | 57 | 1015.3 |
| 20260503234730 | 13 | 288 | 14.5 | 43.5 | 0.00 | 0.15 | 0.00 | 57 | 1015.5 |
| 20260503234631 | 13 | 311 | 14.5 | 43.5 | 0.00 | 0.15 | 0.00 | 57 | 1015.4 |
| 20260503234529 | 13 | 238 | 14.5 | 43.5 | 0.00 | 0.15 | 0.00 | 57 | 1015.4 |
| 20260503234429 | 13 | 314 | 14.5 | 43.5 | 0.00 | 0.15 | 0.00 | 58 | 1015.4 |
| 20260503234329 | 13 | 310 | 14.5 | 30.6 | 0.00 | 0.15 | 0.00 | 58 | 1015.6 |
| 20260503234229 | 13 | 340 | 16.1 | 30.6 | 0.00 | 0.15 | 0.00 | 57 | 1015.5 |
| 20260503234130 | 13 | 287 | 16.1 | 30.6 | 0.00 | 0.15 | 0.00 | 57 | 1015.5 |
| 20260503234029 | 13 | 341 | 16.1 | 45.1 | 0.00 | 0.15 | 0.00 | 57 | 1015.6 |
| 20260503233929 | 13 | 27 | 17.7 | 45.1 | 0.00 | 0.15 | 0.00 | 57 | 1015.6 |
| 20260503233828 | 13 | 340 | 17.7 | 45.1 | 0.00 | 0.15 | 0.00 | 57 | 1015.5 |
| 20260503233730 | 13 | 311 | 19.3 | 45.1 | 0.00 | 0.15 | 0.00 | 56 | 1015.5 |
| 20260503233631 | 13 | 303 | 19.3 | 45.1 | 0.00 | 0.15 | 0.00 | 57 | 1015.4 |
| 20260503233531 | 13 | 5 | 19.3 | 45.1 | 0.00 | 0.15 | 0.00 | 56 | 1015.5 |
| 20260503233430 | 13 | 290 | 20.9 | 45.1 | 0.00 | 0.15 | 0.00 | 56 | 1015.6 |
| 20260503233229 | 13 | 299 | 20.9 | 45.1 | 0.00 | 0.15 | 0.00 | 55 | 1015.6 |
| 20260503233130 | 13 | 18 | 19.3 | 45.1 | 0.00 | 0.15 | 0.00 | 55 | 1015.5 |
| 20260503233028 | 13 | 278 | 19.3 | 38.6 | 0.00 | 0.15 | 0.00 | 55 | 1015.6 |
| 20260503232931 | 13 | 323 | 19.3 | 38.6 | 0.00 | 0.15 | 0.00 | 55 | 1015.6 |
| 20260503232829 | 13 | 0 | 17.7 | 38.6 | 0.00 | 0.15 | 0.00 | 55 | 1015.5 |
| 20260503232728 | 13 | 299 | 17.7 | 38.6 | 0.00 | 0.15 | 0.00 | 55 | 1015.6 |
| 20260503232631 | 13 | 345 | 17.7 | 38.6 | 0.00 | 0.15 | 0.00 | 56 | 1015.5 |
| 20260503232530 | 13 | 332 | 17.7 | 38.6 | 0.00 | 0.15 | 0.00 | 56 | 1015.4 |
| 20260503232429 | 13 | 266 | 16.1 | 38.6 | 0.00 | 0.15 | 0.00 | 56 | 1015.6 |
| 20260503232328 | 13 | 254 | 16.1 | 35.4 | 0.00 | 0.15 | 0.00 | 57 | 1015.6 |
| 20260503232229 | 13 | 276 | 16.1 | 35.4 | 0.00 | 0.15 | 0.00 | 57 | 1015.3 |
| 20260503232131 | 13 | 294 | 16.1 | 32.2 | 0.00 | 0.15 | 0.00 | 57 | 1015.4 |
| 20260503232029 | 13 | 349 | 16.1 | 32.2 | 0.00 | 0.15 | 0.00 | 57 | 1015.6 |
| 20260503231930 | 13 | 312 | 14.5 | 32.2 | 0.00 | 0.15 | 0.00 | 57 | 1015.4 |
| 20260503231830 | 13 | 307 | 16.1 | 32.2 | 0.00 | 0.15 | 0.00 | 57 | 1015.4 |
| 20260503231728 | 13 | 314 | 14.5 | 32.2 | 0.00 | 0.15 | 0.00 | 57 | 1015.4 |
| 20260503231631 | 13 | 314 | 14.5 | 29.0 | 0.00 | 0.15 | 0.00 | 57 | 1015.4 |
| 20260503231530 | 13 | 307 | 14.5 | 35.4 | 0.00 | 0.15 | 0.00 | 57 | 1015.4 |
| 20260503231429 | 13 | 289 | 14.5 | 35.4 | 0.00 | 0.15 | 0.00 | 57 | 1015.3 |
| 20260503231328 | 13 | 271 | 14.5 | 35.4 | 0.00 | 0.15 | 0.00 | 58 | 1015.5 |
| 20260503231232 | 13 | 149 | 16.1 | 35.4 | 0.00 | 0.15 | 0.00 | 58 | 1015.3 |
| 20260503231131 | 13 | 347 | 16.1 | 35.4 | 0.00 | 0.15 | 0.00 | 58 | 1015.4 |
| 20260503231030 | 13 | 295 | 16.1 | 35.4 | 0.00 | 0.15 | 0.00 | 58 | 1015.5 |
| 20260503230928 | 13 | 301 | 16.1 | 35.4 | 0.00 | 0.15 | 0.00 | 58 | 1015.5 |
| 20260503230824 | 13 | 340 | 16.1 | 35.4 | 0.00 | 0.15 | 0.00 | 59 | 1015.4 |
| 20260503230726 | 13 | 286 | 17.7 | 35.4 | 0.00 | 0.15 | 0.00 | 60 | 1015.4 |
| 20260503230624 | 13 | 310 | 16.1 | 35.4 | 0.00 | 0.15 | 0.00 | 59 | 1015.4 |
| 20260503230523 | 13 | 307 | 16.1 | 35.4 | 0.00 | 0.15 | 0.00 | 59 | 1015.4 |
| 20260503230423 | 13 | 307 | 16.1 | 35.4 | 0.00 | 0.15 | 0.00 | 59 | 1015.4 |
| 20260503230324 | 13 | 316 | 14.5 | 35.4 | 0.00 | 0.15 | 0.00 | 59 | 1015.4 |
| 20260503230224 | 13 | 10 | 14.5 | 38.6 | 0.00 | 0.15 | 0.00 | 59 | 1015.4 |
| 20260503230124 | 13 | 323 | 14.5 | 38.6 | 0.00 | 0.15 | 0.00 | 58 | 1015.5 |
| 20260503230016 | 13 | 289 | 14.5 | 38.6 | 0.00 | 0.15 | 0.00 | 58 | 1015.5 |
| 20260503225917 | 13 | 295 | 12.9 | 38.6 | 0.00 | 0.15 | 0.00 | 59 | 1015.5 |
| 20260503225818 | 13 | 327 | 12.9 | 38.6 | 0.00 | 0.15 | 0.00 | 59 | 1015.6 |
| 20260503225717 | 13 | 345 | 12.9 | 38.6 | 0.00 | 0.15 | 0.00 | 59 | 1015.6 |
| 20260503225617 | 13 | 310 | 14.5 | 38.6 | 0.00 | 0.15 | 0.00 | 59 | 1015.6 |
| 20260503225510 | 13 | 287 | 14.5 | 38.6 | 0.00 | 0.15 | 0.00 | 59 | 1015.5 |
| 20260503225412 | 13 | 20 | 12.9 | 38.6 | 0.00 | 0.15 | 0.00 | 59 | 1015.4 |
| 20260503225311 | 13 | 278 | 11.3 | 38.6 | 0.00 | 0.15 | 0.00 | 59 | 1015.4 |
| 20260503225212 | 13 | 330 | 11.3 | 29.0 | 0.00 | 0.15 | 0.00 | 59 | 1015.4 |
| 20260503225112 | 13 | 298 | 12.9 | 29.0 | 0.00 | 0.15 | 0.00 | 59 | 1015.5 |
| 20260503225005 | 13 | 54 | 12.9 | 29.0 | 0.00 | 0.15 | 0.00 | 59 | 1015.6 |
| 20260503224906 | 13 | 355 | 12.9 | 30.6 | 0.00 | 0.15 | 0.00 | 59 | 1015.6 |
| 20260503224809 | 13 | 342 | 12.9 | 30.6 | 0.00 | 0.15 | 0.00 | 59 | 1015.5 |
| 20260503224707 | 13 | 316 | 12.9 | 30.6 | 0.00 | 0.15 | 0.00 | 60 | 1015.6 |
| 20260503224604 | 13 | 297 | 12.9 | 30.6 | 0.00 | 0.15 | 0.00 | 60 | 1015.6 |
| 20260503224503 | 13 | 282 | 12.9 | 30.6 | 0.00 | 0.15 | 0.00 | 60 | 1015.4 |
| 20260503224403 | 13 | 86 | 14.5 | 30.6 | 0.00 | 0.15 | 0.00 | 60 | 1015.5 |
| 20260503224304 | 13 | 118 | 14.5 | 30.6 | 0.00 | 0.15 | 0.00 | 60 | 1015.3 |
| 20260503224203 | 13 | 335 | 16.1 | 30.6 | 0.00 | 0.15 | 0.00 | 60 | 1015.3 |
| 20260503224103 | 13 | 10 | 16.1 | 30.6 | 0.00 | 0.15 | 0.00 | 59 | 1015.4 |
| 20260503224002 | 13 | 324 | 16.1 | 35.4 | 0.00 | 0.15 | 0.00 | 59 | 1015.5 |
| 20260503223905 | 13 | 325 | 17.7 | 35.4 | 0.00 | 0.15 | 0.00 | 59 | 1015.5 |
| 20260503223804 | 13 | 0 | 19.3 | 43.5 | 0.00 | 0.15 | 0.00 | 59 | 1015.6 |
| 20260503223704 | 13 | 35 | 19.3 | 43.5 | 0.00 | 0.15 | 0.00 | 59 | 1015.5 |
| 20260503223602 | 13 | 51 | 17.7 | 43.5 | 0.00 | 0.15 | 0.00 | 60 | 1015.5 |
| 20260503223504 | 13 | 312 | 17.7 | 43.5 | 0.00 | 0.15 | 0.00 | 60 | 1015.5 |
| 20260503223403 | 13 | 314 | 17.7 | 43.5 | 0.00 | 0.15 | 0.00 | 61 | 1015.6 |
| 20260503223303 | 13 | 299 | 17.7 | 43.5 | 0.00 | 0.15 | 0.00 | 61 | 1015.5 |
| 20260503223203 | 13 | 282 | 17.7 | 43.5 | 0.00 | 0.15 | 0.00 | 61 | 1015.4 |
| 20260503223103 | 13 | 305 | 17.7 | 43.5 | 0.00 | 0.15 | 0.00 | 63 | 1015.4 |
| 20260503223004 | 13 | 287 | 16.1 | 43.5 | 0.00 | 0.15 | 0.00 | 63 | 1015.5 |
| 20260503222904 | 13 | 292 | 14.5 | 43.5 | 0.00 | 0.15 | 0.00 | 63 | 1015.4 |
| 20260503222802 | 13 | 324 | 14.5 | 33.8 | 0.00 | 0.15 | 0.00 | 64 | 1015.4 |
| 20260503222702 | 13 | 303 | 14.5 | 30.6 | 0.00 | 0.15 | 0.00 | 64 | 1015.4 |
| 20260503222602 | 13 | 355 | 14.5 | 30.6 | 0.00 | 0.15 | 0.00 | 64 | 1015.4 |
| 20260503222502 | 13 | 30 | 16.1 | 41.8 | 0.00 | 0.15 | 0.00 | 63 | 1015.3 |
| 20260503222400 | 13 | 304 | 17.7 | 41.8 | 0.00 | 0.15 | 0.00 | 63 | 1015.3 |
| 20260503222256 | 13 | 14 | 16.1 | 41.8 | 0.00 | 0.15 | 0.00 | 63 | 1015.3 |
| 20260503222156 | 13 | 328 | 16.1 | 41.8 | 0.00 | 0.15 | 0.00 | 63 | 1015.3 |
| 20260503222056 | 13 | 279 | 14.5 | 41.8 | 0.00 | 0.15 | 0.00 | 63 | 1015.4 |
| 20260503221954 | 13 | 330 | 16.1 | 41.8 | 0.00 | 0.15 | 0.00 | 64 | 1015.4 |
| 20260503221854 | 13 | 341 | 16.1 | 41.8 | 0.00 | 0.15 | 0.00 | 63 | 1015.3 |
| 20260503221752 | 13 | 349 | 17.7 | 41.8 | 0.00 | 0.15 | 0.00 | 63 | 1015.4 |
| 20260503221649 | 13 | 286 | 17.7 | 41.8 | 0.00 | 0.15 | 0.00 | 63 | 1015.3 |
| 20260503221548 | 13 | 264 | 17.7 | 41.8 | 0.00 | 0.15 | 0.00 | 62 | 1015.4 |
| 20260503221448 | 13 | 306 | 17.7 | 41.8 | 0.00 | 0.15 | 0.00 | 63 | 1015.4 |
| 20260503221348 | 13 | 328 | 17.7 | 41.8 | 0.00 | 0.15 | 0.00 | 62 | 1015.2 |
| 20260503221242 | 13 | 259 | 19.3 | 41.8 | 0.00 | 0.15 | 0.00 | 62 | 1015.4 |
| 20260503221142 | 13 | 253 | 19.3 | 41.8 | 0.00 | 0.15 | 0.00 | 62 | 1015.3 |
| 20260503221043 | 13 | 307 | 19.3 | 41.8 | 0.00 | 0.15 | 0.00 | 61 | 1015.3 |
| 20260503220943 | 13 | 14 | 19.3 | 41.8 | 0.00 | 0.15 | 0.00 | 61 | 1015.4 |
| 20260503220843 | 13 | 314 | 19.3 | 41.8 | 0.00 | 0.15 | 0.00 | 62 | 1015.4 |
| 20260503220737 | 13 | 343 | 17.7 | 48.3 | 0.00 | 0.15 | 0.00 | 62 | 1015.4 |
| 20260503220637 | 13 | 315 | 17.7 | 48.3 | 0.00 | 0.15 | 0.00 | 63 | 1015.3 |
| 20260503220537 | 13 | 332 | 17.7 | 48.3 | 0.00 | 0.15 | 0.00 | 64 | 1015.3 |
| 20260503220438 | 13 | 297 | 16.1 | 48.3 | 0.00 | 0.15 | 0.00 | 65 | 1015.3 |
| 20260503220334 | 13 | 286 | 14.5 | 48.3 | 0.00 | 0.15 | 0.00 | 64 | 1015.1 |
| 20260503220232 | 13 | 5 | 14.5 | 48.3 | 0.00 | 0.15 | 0.00 | 64 | 1015.3 |
| 20260503220132 | 13 | 303 | 14.5 | 48.3 | 0.00 | 0.15 | 0.00 | 64 | 1015.2 |
| 20260503220031 | 13 | 328 | 14.5 | 48.3 | 0.00 | 0.15 | 0.00 | 64 | 1015.2 |
| 20260503215932 | 13 | 322 | 14.5 | 48.3 | 0.00 | 0.15 | 0.00 | 64 | 1015.3 |
| 20260503215832 | 13 | 336 | 14.5 | 48.3 | 0.00 | 0.15 | 0.00 | 64 | 1015.3 |
| 20260503215732 | 13 | 338 | 14.5 | 46.7 | 0.00 | 0.15 | 0.00 | 63 | 1015.3 |
| 20260503215632 | 13 | 320 | 14.5 | 27.4 | 0.00 | 0.15 | 0.00 | 64 | 1015.2 |
| 20260503215532 | 13 | 345 | 14.5 | 37.0 | 0.00 | 0.15 | 0.00 | 64 | 1015.3 |
| 20260503215432 | 13 | 341 | 16.1 | 40.2 | 0.00 | 0.15 | 0.00 | 64 | 1015.2 |
| 20260503215332 | 13 | 299 | 16.1 | 40.2 | 0.00 | 0.15 | 0.00 | 65 | 1015.4 |
| 20260503215232 | 13 | 36 | 17.7 | 40.2 | 0.00 | 0.15 | 0.00 | 65 | 1015.3 |
| 20260503215131 | 13 | 19 | 19.3 | 40.2 | 0.00 | 0.15 | 0.00 | 65 | 1015.3 |
| 20260503215032 | 13 | 336 | 19.3 | 40.2 | 0.00 | 0.15 | 0.00 | 65 | 1015.1 |
| 20260503214931 | 13 | 356 | 19.3 | 40.2 | 0.00 | 0.15 | 0.00 | 65 | 1015.2 |
| 20260503214831 | 13 | 270 | 20.9 | 40.2 | 0.00 | 0.15 | 0.00 | 65 | 1015.1 |
| 20260503214731 | 13 | 299 | 20.9 | 40.2 | 0.00 | 0.15 | 0.00 | 65 | 1015.1 |
| 20260503214634 | 13 | 325 | 20.9 | 40.2 | 0.00 | 0.15 | 0.00 | 65 | 1015.3 |
| 20260503214529 | 13 | 302 | 20.9 | 48.3 | 0.00 | 0.15 | 0.00 | 65 | 1015.2 |
| 20260503214426 | 13 | 60 | 20.9 | 48.3 | 0.00 | 0.15 | 0.00 | 65 | 1015.2 |
| 20260503214327 | 13 | 298 | 20.9 | 48.3 | 0.00 | 0.15 | 0.00 | 65 | 1015.1 |
| 20260503214225 | 13 | 328 | 20.9 | 48.3 | 0.00 | 0.15 | 0.00 | 65 | 1015.2 |
| 20260503214126 | 13 | 324 | 20.9 | 48.3 | 0.00 | 0.15 | 0.00 | 65 | 1015.2 |
| 20260503214020 | 13 | 210 | 20.9 | 48.3 | 0.00 | 0.15 | 0.00 | 65 | 1015.3 |
| 20260503213921 | 13 | 303 | 19.3 | 48.3 | 0.00 | 0.15 | 0.00 | 65 | 1015.3 |
| 20260503213821 | 13 | 326 | 19.3 | 48.3 | 0.00 | 0.15 | 0.00 | 65 | 1015.1 |
| 20260503213720 | 13 | 319 | 19.3 | 53.1 | 0.00 | 0.15 | 0.00 | 65 | 1015.3 |
| 20260503213620 | 13 | 301 | 17.7 | 53.1 | 0.00 | 0.15 | 0.00 | 64 | 1015.1 |
| 20260503213515 | 13 | 307 | 17.7 | 53.1 | 0.00 | 0.15 | 0.00 | 64 | 1015.3 |
| 20260503213416 | 13 | 314 | 17.7 | 53.1 | 0.00 | 0.15 | 0.00 | 64 | 1015.4 |
| 20260503213317 | 13 | 304 | 17.7 | 53.1 | 0.00 | 0.15 | 0.00 | 65 | 1015.3 |
| 20260503213214 | 13 | 299 | 17.7 | 53.1 | 0.00 | 0.15 | 0.00 | 65 | 1015.3 |
| 20260503213115 | 13 | 289 | 16.1 | 53.1 | 0.00 | 0.15 | 0.00 | 66 | 1015.2 |
| 20260503213010 | 13 | 290 | 16.1 | 53.1 | 0.00 | 0.15 | 0.00 | 66 | 1015.3 |
| 20260503212908 | 13 | 280 | 16.1 | 53.1 | 0.00 | 0.15 | 0.00 | 66 | 1015.2 |
| 20260503212807 | 13 | 14 | 14.5 | 53.1 | 0.00 | 0.15 | 0.00 | 66 | 1015.1 |
| 20260503212710 | 13 | 262 | 16.1 | 30.6 | 0.00 | 0.15 | 0.00 | 67 | 1015.2 |
| 20260503212608 | 13 | 37 | 16.1 | 30.6 | 0.00 | 0.15 | 0.00 | 67 | 1015.1 |
| 20260503212508 | 13 | 338 | 16.1 | 30.6 | 0.00 | 0.15 | 0.00 | 66 | 1015.1 |
| 20260503212407 | 12 | 326 | 16.1 | 30.6 | 0.00 | 0.15 | 0.00 | 66 | 1015.1 |
| 20260503212308 | 12 | 320 | 16.1 | 30.6 | 0.00 | 0.15 | 0.00 | 66 | 1015.1 |
| 20260503212207 | 12 | 314 | 17.7 | 33.8 | 0.00 | 0.15 | 0.00 | 66 | 1015.1 |
| 20260503212104 | 12 | 305 | 17.7 | 57.9 | 0.00 | 0.15 | 0.00 | 66 | 1015.0 |
| 20260503212004 | 12 | 293 | 19.3 | 57.9 | 0.00 | 0.15 | 0.00 | 66 | 1014.9 |
| 20260503211904 | 12 | 324 | 20.9 | 57.9 | 0.00 | 0.15 | 0.00 | 66 | 1015.0 |
| 20260503211804 | 12 | 356 | 19.3 | 57.9 | 0.00 | 0.15 | 0.00 | 66 | 1015.1 |
| 20260503211703 | 12 | 10 | 19.3 | 57.9 | 0.00 | 0.15 | 0.00 | 65 | 1015.2 |
| 20260503211604 | 12 | 35 | 20.9 | 57.9 | 0.00 | 0.15 | 0.00 | 65 | 1015.3 |
| 20260503211504 | 12 | 338 | 20.9 | 57.9 | 0.00 | 0.15 | 0.00 | 65 | 1015.2 |
| 20260503211403 | 12 | 333 | 20.9 | 57.9 | 0.00 | 0.15 | 0.00 | 65 | 1015.2 |
| 20260503211306 | 12 | 68 | 20.9 | 57.9 | 0.00 | 0.15 | 0.00 | 66 | 1015.1 |
| 20260503211203 | 13 | 332 | 19.3 | 57.9 | 0.00 | 0.15 | 0.00 | 66 | 1015.4 |
| 20260503211103 | 13 | 314 | 19.3 | 43.5 | 0.00 | 0.15 | 0.00 | 68 | 1015.1 |
| 20260503211003 | 13 | 17 | 19.3 | 43.5 | 0.00 | 0.15 | 0.00 | 67 | 1015.3 |
| 20260503210904 | 13 | 340 | 19.3 | 43.5 | 0.00 | 0.15 | 0.00 | 68 | 1015.1 |
| 20260503210803 | 13 | 338 | 19.3 | 43.5 | 0.00 | 0.15 | 0.00 | 67 | 1015.0 |
| 20260503210704 | 13 | 40 | 19.3 | 43.5 | 0.00 | 0.15 | 0.00 | 67 | 1015.1 |
| 20260503210603 | 13 | 324 | 17.7 | 45.1 | 0.00 | 0.15 | 0.00 | 67 | 1015.1 |
| 20260503210504 | 13 | 276 | 17.7 | 45.1 | 0.00 | 0.15 | 0.00 | 67 | 1015.1 |
| 20260503210403 | 13 | 314 | 17.7 | 45.1 | 0.00 | 0.15 | 0.00 | 67 | 1015.1 |
| 20260503210303 | 13 | 336 | 17.7 | 45.1 | 0.00 | 0.15 | 0.00 | 67 | 1015.0 |
| 20260503210202 | 13 | 353 | 16.1 | 45.1 | 0.00 | 0.15 | 0.00 | 67 | 1015.1 |
| 20260503210005 | 13 | 318 | 16.1 | 45.1 | 0.00 | 0.15 | 0.00 | 67 | 1015.0 |
| 20260503205904 | 13 | 322 | 16.1 | 45.1 | 0.00 | 0.15 | 0.15 | 67 | 1015.0 |
| 20260503205804 | 13 | 10 | 17.7 | 45.1 | 0.00 | 0.15 | 0.15 | 67 | 1015.0 |
| 20260503205705 | 13 | 327 | 17.7 | 45.1 | 0.00 | 0.15 | 0.15 | 67 | 1015.2 |
| 20260503205602 | 13 | 347 | 17.7 | 41.8 | 0.00 | 0.15 | 0.15 | 67 | 1015.2 |
| 20260503205503 | 13 | 74 | 17.7 | 41.8 | 0.00 | 0.15 | 0.15 | 67 | 1015.1 |
| 20260503205404 | 13 | 347 | 16.1 | 41.8 | 0.00 | 0.15 | 0.15 | 68 | 1015.0 |
| 20260503205304 | 13 | 331 | 16.1 | 41.8 | 0.00 | 0.15 | 0.15 | 68 | 1015.0 |
| 20260503205204 | 13 | 24 | 16.1 | 41.8 | 0.00 | 0.15 | 0.15 | 68 | 1015.1 |
| 20260503205103 | 13 | 317 | 17.7 | 41.8 | 0.00 | 0.15 | 0.15 | 68 | 1015.0 |
| 20260503205002 | 13 | 330 | 17.7 | 41.8 | 0.00 | 0.15 | 0.15 | 69 | 1015.0 |
| 20260503204904 | 13 | 276 | 17.7 | 41.8 | 0.00 | 0.15 | 0.15 | 69 | 1014.9 |
| 20260503204802 | 13 | 312 | 17.7 | 41.8 | 0.00 | 0.15 | 0.15 | 69 | 1015.0 |
| 20260503204704 | 13 | 336 | 17.7 | 35.4 | 0.00 | 0.15 | 0.15 | 69 | 1014.9 |
| 20260503204602 | 13 | 331 | 17.7 | 35.4 | 0.00 | 0.15 | 0.15 | 69 | 1015.0 |
| 20260503204504 | 13 | 315 | 17.7 | 35.4 | 0.00 | 0.15 | 0.15 | 69 | 1014.9 |
| 20260503204403 | 13 | 280 | 17.7 | 35.4 | 0.00 | 0.15 | 0.15 | 69 | 1014.9 |
| 20260503204302 | 13 | 0 | 17.7 | 35.4 | 0.00 | 0.15 | 0.15 | 69 | 1014.9 |
| 20260503204204 | 13 | 316 | 17.7 | 35.4 | 0.00 | 0.15 | 0.15 | 69 | 1014.9 |
| 20260503204106 | 13 | 46 | 17.7 | 35.4 | 0.00 | 0.15 | 0.15 | 69 | 1014.8 |
| 20260503204002 | 13 | 301 | 16.1 | 35.4 | 0.00 | 0.15 | 0.15 | 69 | 1014.9 |
| 20260503203902 | 13 | 333 | 14.5 | 35.4 | 0.00 | 0.15 | 0.15 | 69 | 1014.9 |
| 20260503203802 | 13 | 314 | 14.5 | 35.4 | 0.00 | 0.15 | 0.15 | 69 | 1015.0 |
| 20260503203704 | 13 | 307 | 12.9 | 33.8 | 0.00 | 0.15 | 0.15 | 69 | 1014.9 |
| 20260503203604 | 13 | 34 | 12.9 | 33.8 | 0.00 | 0.15 | 0.15 | 69 | 1015.0 |
| 20260503203504 | 13 | 289 | 12.9 | 33.8 | 0.00 | 0.15 | 0.15 | 71 | 1015.0 |
| 20260503203402 | 13 | 311 | 12.9 | 33.8 | 0.00 | 0.15 | 0.15 | 71 | 1014.8 |
| 20260503203302 | 13 | 33 | 12.9 | 27.4 | 0.00 | 0.15 | 0.15 | 71 | 1014.8 |
| 20260503203203 | 13 | 5 | 14.5 | 27.4 | 0.00 | 0.15 | 0.15 | 71 | 1014.8 |
| 20260503203102 | 13 | 291 | 16.1 | 35.4 | 0.00 | 0.15 | 0.15 | 71 | 1014.7 |
| 20260503203002 | 13 | 27 | 16.1 | 35.4 | 0.00 | 0.15 | 0.15 | 71 | 1014.8 |
| 20260503202904 | 13 | 319 | 16.1 | 35.4 | 0.00 | 0.15 | 0.15 | 72 | 1014.9 |
| 20260503202804 | 13 | 279 | 16.1 | 35.4 | 0.00 | 0.15 | 0.15 | 72 | 1014.8 |
| 20260503202703 | 13 | 300 | 17.7 | 35.4 | 0.00 | 0.15 | 0.15 | 72 | 1014.8 |
| 20260503202602 | 13 | 322 | 16.1 | 35.4 | 0.00 | 0.15 | 0.15 | 71 | 1014.8 |
| 20260503202503 | 12 | 307 | 16.1 | 35.4 | 0.00 | 0.15 | 0.15 | 72 | 1014.9 |
| 20260503202405 | 12 | 303 | 16.1 | 35.4 | 0.00 | 0.15 | 0.15 | 71 | 1014.9 |
| 20260503202304 | 12 | 328 | 16.1 | 35.4 | 0.00 | 0.15 | 0.15 | 71 | 1014.9 |
| 20260503202203 | 12 | 345 | 14.5 | 35.4 | 0.00 | 0.15 | 0.15 | 72 | 1014.9 |
| 20260503202103 | 12 | 308 | 14.5 | 35.4 | 0.00 | 0.15 | 0.15 | 72 | 1015.0 |
| 20260503202003 | 12 | 327 | 14.5 | 35.4 | 0.00 | 0.15 | 0.15 | 72 | 1014.8 |
| 20260503201902 | 12 | 331 | 14.5 | 35.4 | 0.00 | 0.15 | 0.15 | 72 | 1015.0 |
| 20260503201803 | 12 | 306 | 16.1 | 35.4 | 0.00 | 0.15 | 0.15 | 72 | 1014.9 |
| 20260503201705 | 12 | 334 | 16.1 | 35.4 | 0.00 | 0.15 | 0.15 | 72 | 1015.0 |
| 20260503201605 | 12 | 347 | 16.1 | 30.6 | 0.00 | 0.15 | 0.15 | 72 | 1015.1 |
| 20260503201502 | 12 | 351 | 16.1 | 35.4 | 0.00 | 0.15 | 0.15 | 72 | 1014.9 |
| 20260503201404 | 12 | 318 | 17.7 | 35.4 | 0.00 | 0.15 | 0.15 | 72 | 1015.0 |
| 20260503201303 | 12 | 295 | 19.3 | 35.4 | 0.00 | 0.15 | 0.15 | 72 | 1014.9 |
| 20260503201203 | 12 | 280 | 20.9 | 41.8 | 0.00 | 0.15 | 0.15 | 72 | 1014.9 |
| 20260503201107 | 12 | 301 | 20.9 | 45.1 | 0.00 | 0.15 | 0.15 | 71 | 1015.0 |
| 20260503201002 | 12 | 5 | 20.9 | 45.1 | 0.00 | 0.15 | 0.15 | 70 | 1015.1 |
| 20260503200902 | 12 | 282 | 22.5 | 45.1 | 0.00 | 0.15 | 0.15 | 70 | 1015.2 |
| 20260503200802 | 12 | 0 | 22.5 | 45.1 | 0.00 | 0.15 | 0.15 | 70 | 1015.0 |
| 20260503200705 | 12 | 318 | 22.5 | 45.1 | 0.00 | 0.15 | 0.15 | 70 | 1015.0 |
| 20260503200602 | 12 | 22 | 22.5 | 45.1 | 0.00 | 0.15 | 0.15 | 69 | 1015.0 |
| 20260503200502 | 12 | 290 | 22.5 | 45.1 | 0.00 | 0.15 | 0.15 | 69 | 1015.2 |
| 20260503200402 | 12 | 356 | 22.5 | 45.1 | 0.00 | 0.15 | 0.15 | 69 | 1015.2 |
| 20260503200304 | 12 | 324 | 20.9 | 45.1 | 0.00 | 0.15 | 0.15 | 69 | 1015.2 |
| 20260503200203 | 13 | 350 | 19.3 | 45.1 | 0.03 | 0.15 | 0.15 | 70 | 1015.2 |
| 20260503200002 | 13 | 31 | 19.3 | 40.2 | 0.05 | 0.15 | 0.15 | 69 | 1015.0 |
| 20260503195902 | 13 | 341 | 19.3 | 40.2 | 0.05 | 0.15 | 0.15 | 69 | 1015.0 |
| 20260503195801 | 13 | 340 | 17.7 | 40.2 | 0.05 | 0.15 | 0.15 | 69 | 1014.8 |
| 20260503195702 | 13 | 253 | 16.1 | 40.2 | 0.05 | 0.15 | 0.15 | 69 | 1014.8 |
| 20260503195600 | 13 | 340 | 16.1 | 37.0 | 0.05 | 0.15 | 0.15 | 69 | 1014.9 |
| 20260503195500 | 13 | 0 | 16.1 | 37.0 | 0.05 | 0.15 | 0.15 | 69 | 1015.0 |
| 20260503195401 | 13 | 292 | 16.1 | 37.0 | 0.05 | 0.15 | 0.15 | 69 | 1015.1 |
| 20260503195301 | 13 | 5 | 16.1 | 37.0 | 0.05 | 0.15 | 0.15 | 69 | 1014.8 |
| 20260503195200 | 13 | 316 | 16.1 | 33.8 | 0.05 | 0.15 | 0.15 | 69 | 1014.8 |
| 20260503195101 | 13 | 347 | 14.5 | 33.8 | 0.05 | 0.15 | 0.15 | 69 | 1014.8 |
| 20260503195001 | 13 | 264 | 14.5 | 32.2 | 0.05 | 0.15 | 0.15 | 70 | 1014.8 |
| 20260503194900 | 13 | 10 | 14.5 | 32.2 | 0.05 | 0.15 | 0.15 | 70 | 1014.9 |
| 20260503194802 | 13 | 331 | 12.9 | 32.2 | 0.05 | 0.15 | 0.15 | 70 | 1014.8 |
| 20260503194702 | 13 | 329 | 12.9 | 32.2 | 0.05 | 0.15 | 0.15 | 70 | 1014.7 |
| 20260503194601 | 13 | 294 | 14.5 | 32.2 | 0.05 | 0.15 | 0.15 | 70 | 1014.7 |
| 20260503194501 | 12 | 311 | 14.5 | 32.2 | 0.08 | 0.15 | 0.15 | 70 | 1014.6 |
| 20260503194402 | 12 | 336 | 12.9 | 32.2 | 0.08 | 0.15 | 0.15 | 70 | 1014.7 |
| 20260503194302 | 12 | 315 | 12.9 | 32.2 | 0.08 | 0.15 | 0.15 | 71 | 1014.8 |
| 20260503194202 | 12 | 301 | 12.9 | 29.0 | 0.08 | 0.15 | 0.15 | 71 | 1014.8 |
| 20260503194101 | 12 | 330 | 12.9 | 25.7 | 0.08 | 0.15 | 0.15 | 71 | 1014.8 |
| 20260503194001 | 12 | 337 | 12.9 | 25.7 | 0.08 | 0.15 | 0.15 | 71 | 1014.8 |
| 20260503193902 | 12 | 247 | 14.5 | 25.7 | 0.08 | 0.15 | 0.15 | 72 | 1014.7 |
| 20260503193805 | 12 | 278 | 14.5 | 30.6 | 0.08 | 0.15 | 0.15 | 72 | 1014.8 |
| 20260503193702 | 12 | 305 | 14.5 | 30.6 | 0.08 | 0.15 | 0.15 | 72 | 1014.8 |
| 20260503193602 | 12 | 314 | 16.1 | 30.6 | 0.08 | 0.15 | 0.15 | 72 | 1014.7 |
| 20260503193502 | 12 | 306 | 16.1 | 30.6 | 0.08 | 0.15 | 0.15 | 72 | 1014.5 |
| 20260503193402 | 12 | 324 | 16.1 | 30.6 | 0.08 | 0.15 | 0.15 | 72 | 1014.8 |
| 20260503193302 | 12 | 304 | 17.7 | 33.8 | 0.08 | 0.15 | 0.15 | 72 | 1014.8 |
| 20260503193200 | 12 | 346 | 17.7 | 40.2 | 0.08 | 0.15 | 0.15 | 72 | 1014.8 |
| 20260503193101 | 12 | 308 | 17.7 | 40.2 | 0.08 | 0.15 | 0.15 | 72 | 1014.8 |
| 20260503193001 | 12 | 234 | 19.3 | 40.2 | 0.08 | 0.15 | 0.15 | 72 | 1014.7 |
| 20260503192901 | 12 | 309 | 19.3 | 40.2 | 0.08 | 0.15 | 0.15 | 72 | 1014.8 |
| 20260503192802 | 12 | 0 | 19.3 | 40.2 | 0.08 | 0.15 | 0.15 | 72 | 1014.8 |
| 20260503192704 | 12 | 5 | 19.3 | 40.2 | 0.08 | 0.15 | 0.15 | 72 | 1014.7 |
| 20260503192601 | 12 | 318 | 17.7 | 40.2 | 0.08 | 0.15 | 0.15 | 72 | 1014.8 |
| 20260503192501 | 12 | 349 | 17.7 | 40.2 | 0.08 | 0.15 | 0.15 | 73 | 1014.8 |
| 20260503192406 | 12 | 330 | 16.1 | 40.2 | 0.08 | 0.15 | 0.15 | 73 | 1014.8 |
| 20260503192302 | 12 | 346 | 16.1 | 40.2 | 0.08 | 0.15 | 0.15 | 74 | 1014.8 |
| 20260503192200 | 12 | 272 | 16.1 | 40.2 | 0.08 | 0.15 | 0.15 | 74 | 1014.6 |
| 20260503192100 | 12 | 60 | 16.1 | 40.2 | 0.08 | 0.15 | 0.15 | 75 | 1014.7 |
| 20260503192001 | 11 | 329 | 14.5 | 38.6 | 0.08 | 0.15 | 0.15 | 75 | 1014.6 |
| 20260503191906 | 11 | 297 | 14.5 | 38.6 | 0.08 | 0.15 | 0.15 | 76 | 1014.8 |
| 20260503191802 | 11 | 324 | 14.5 | 32.2 | 0.08 | 0.15 | 0.15 | 76 | 1014.8 |
| 20260503191703 | 11 | 19 | 14.5 | 37.0 | 0.08 | 0.15 | 0.15 | 76 | 1014.8 |
| 20260503191600 | 11 | 46 | 16.1 | 37.0 | 0.08 | 0.15 | 0.15 | 76 | 1014.4 |
| 20260503191502 | 11 | 284 | 17.7 | 38.6 | 0.08 | 0.15 | 0.15 | 77 | 1014.6 |
| 20260503191403 | 11 | 331 | 17.7 | 38.6 | 0.08 | 0.15 | 0.15 | 77 | 1014.6 |
| 20260503191301 | 11 | 5 | 19.3 | 38.6 | 0.08 | 0.15 | 0.15 | 77 | 1014.6 |
| 20260503191202 | 11 | 327 | 19.3 | 38.6 | 0.08 | 0.15 | 0.15 | 77 | 1014.5 |
| 20260503191102 | 11 | 327 | 19.3 | 38.6 | 0.08 | 0.15 | 0.15 | 77 | 1014.4 |
| 20260503191000 | 11 | 266 | 20.9 | 38.6 | 0.08 | 0.15 | 0.15 | 77 | 1014.5 |
| 20260503190901 | 11 | 335 | 20.9 | 38.6 | 0.08 | 0.15 | 0.15 | 77 | 1014.5 |
| 20260503190801 | 11 | 340 | 20.9 | 38.6 | 0.08 | 0.15 | 0.15 | 77 | 1014.7 |
| 20260503190704 | 11 | 5 | 20.9 | 40.2 | 0.08 | 0.15 | 0.15 | 77 | 1014.7 |
| 20260503190601 | 11 | 31 | 20.9 | 40.2 | 0.08 | 0.15 | 0.15 | 77 | 1014.6 |
| 20260503190501 | 11 | 340 | 20.9 | 40.2 | 0.08 | 0.15 | 0.15 | 76 | 1014.9 |
| 20260503190401 | 11 | 292 | 20.9 | 40.2 | 0.08 | 0.15 | 0.15 | 76 | 1014.7 |
| 20260503190303 | 11 | 328 | 20.9 | 40.2 | 0.08 | 0.15 | 0.15 | 76 | 1014.9 |
| 20260503190201 | 11 | 24 | 19.3 | 40.2 | 0.05 | 0.15 | 0.15 | 75 | 1014.8 |
| 20260503190000 | 12 | 338 | 17.7 | 40.2 | 0.05 | 0.13 | 0.13 | 74 | 1015.0 |
| 20260503185901 | 12 | 20 | 17.7 | 40.2 | 0.05 | 0.13 | 0.10 | 74 | 1014.9 |
| 20260503185801 | 12 | 16 | 17.7 | 40.2 | 0.03 | 0.10 | 0.10 | 74 | 1014.7 |
| 20260503185706 | 12 | 321 | 17.7 | 38.6 | 0.03 | 0.10 | 0.10 | 74 | 1014.7 |
| 20260503185601 | 12 | 318 | 17.7 | 38.6 | 0.03 | 0.10 | 0.10 | 73 | 1014.5 |
| 20260503185503 | 12 | 317 | 17.7 | 38.6 | 0.03 | 0.10 | 0.10 | 73 | 1014.4 |
| 20260503185401 | 12 | 58 | 17.7 | 38.6 | 0.03 | 0.10 | 0.10 | 73 | 1014.3 |
| 20260503185301 | 12 | 330 | 16.1 | 38.6 | 0.03 | 0.10 | 0.10 | 73 | 1014.3 |
| 20260503185202 | 12 | 22 | 16.1 | 38.6 | 0.03 | 0.10 | 0.10 | 73 | 1014.2 |
| 20260503185102 | 12 | 16 | 16.1 | 38.6 | 0.03 | 0.10 | 0.10 | 73 | 1014.2 |
| 20260503185001 | 12 | 36 | 16.1 | 38.6 | 0.03 | 0.10 | 0.10 | 73 | 1014.3 |
| 20260503184901 | 12 | 301 | 16.1 | 38.6 | 0.03 | 0.10 | 0.10 | 73 | 1014.1 |
| 20260503184800 | 12 | 331 | 16.1 | 33.8 | 0.03 | 0.10 | 0.10 | 73 | 1014.0 |
| 20260503184706 | 12 | 309 | 16.1 | 33.8 | 0.03 | 0.10 | 0.10 | 74 | 1014.0 |
| 20260503184602 | 12 | 329 | 16.1 | 33.8 | 0.03 | 0.10 | 0.08 | 74 | 1014.0 |
| 20260503184501 | 12 | 351 | 16.1 | 33.8 | 0.00 | 0.08 | 0.08 | 74 | 1014.3 |
| 20260503184401 | 12 | 341 | 16.1 | 33.8 | 0.00 | 0.08 | 0.08 | 74 | 1014.2 |
| 20260503184301 | 12 | 5 | 16.1 | 33.8 | 0.00 | 0.08 | 0.08 | 74 | 1014.2 |
| 20260503184201 | 12 | 291 | 17.7 | 33.8 | 0.00 | 0.08 | 0.08 | 74 | 1014.2 |
| 20260503184102 | 12 | 354 | 17.7 | 33.8 | 0.00 | 0.08 | 0.08 | 73 | 1014.1 |
| 20260503184001 | 12 | 291 | 17.7 | 33.8 | 0.00 | 0.08 | 0.08 | 73 | 1014.1 |
| 20260503183900 | 12 | 329 | 17.7 | 40.2 | 0.00 | 0.08 | 0.08 | 74 | 1014.1 |
| 20260503183802 | 12 | 335 | 17.7 | 40.2 | 0.00 | 0.08 | 0.08 | 74 | 1014.0 |
| 20260503183702 | 12 | 351 | 19.3 | 40.2 | 0.00 | 0.08 | 0.08 | 73 | 1014.1 |
| 20260503183601 | 12 | 351 | 19.3 | 45.1 | 0.00 | 0.08 | 0.08 | 73 | 1014.2 |
| 20260503183501 | 12 | 14 | 19.3 | 45.1 | 0.00 | 0.08 | 0.08 | 73 | 1014.4 |
| 20260503183401 | 12 | 293 | 20.9 | 45.1 | 0.00 | 0.08 | 0.08 | 73 | 1014.4 |
| 20260503183302 | 12 | 296 | 20.9 | 45.1 | 0.00 | 0.08 | 0.08 | 73 | 1014.2 |
| 20260503183201 | 12 | 77 | 20.9 | 45.1 | 0.00 | 0.08 | 0.08 | 72 | 1014.0 |
| 20260503183100 | 12 | 280 | 20.9 | 45.1 | 0.00 | 0.08 | 0.08 | 72 | 1014.1 |
| 20260503183005 | 12 | 311 | 20.9 | 45.1 | 0.00 | 0.08 | 0.08 | 71 | 1014.2 |
| 20260503182902 | 12 | 330 | 20.9 | 45.1 | 0.00 | 0.08 | 0.08 | 70 | 1014.0 |
| 20260503182800 | 12 | 277 | 20.9 | 45.1 | 0.00 | 0.08 | 0.08 | 69 | 1014.1 |
| 20260503182701 | 12 | 347 | 17.7 | 45.1 | 0.00 | 0.08 | 0.08 | 68 | 1014.0 |
| 20260503182602 | 13 | 305 | 17.7 | 45.1 | 0.00 | 0.08 | 0.08 | 68 | 1014.2 |
| 20260503182501 | 13 | 300 | 16.1 | 45.1 | 0.00 | 0.08 | 0.08 | 68 | 1013.7 |
| 20260503182401 | 13 | 293 | 16.1 | 40.2 | 0.00 | 0.08 | 0.08 | 69 | 1013.7 |
| 20260503182300 | 13 | 301 | 14.5 | 40.2 | 0.00 | 0.08 | 0.08 | 70 | 1013.9 |
| 20260503182201 | 13 | 329 | 16.1 | 35.4 | 0.00 | 0.08 | 0.08 | 70 | 1013.6 |
| 20260503182101 | 13 | 29 | 16.1 | 37.0 | 0.00 | 0.08 | 0.08 | 70 | 1013.6 |
| 20260503182002 | 13 | 282 | 16.1 | 37.0 | 0.00 | 0.08 | 0.08 | 70 | 1013.8 |
| 20260503181859 | 13 | 323 | 14.5 | 37.0 | 0.00 | 0.08 | 0.08 | 69 | 1013.6 |
| 20260503181758 | 13 | 342 | 16.1 | 37.0 | 0.00 | 0.08 | 0.08 | 69 | 1013.5 |
| 20260503181657 | 13 | 282 | 16.1 | 37.0 | 0.00 | 0.08 | 0.08 | 69 | 1013.6 |
| 20260503181556 | 12 | 10 | 17.7 | 37.0 | 0.00 | 0.08 | 0.08 | 69 | 1013.5 |
| 20260503181455 | 12 | 356 | 17.7 | 37.0 | 0.00 | 0.08 | 0.08 | 69 | 1013.5 |
| 20260503181350 | 12 | 334 | 17.7 | 37.0 | 0.00 | 0.08 | 0.08 | 69 | 1013.8 |
| 20260503181249 | 12 | 336 | 17.7 | 37.0 | 0.00 | 0.08 | 0.08 | 69 | 1013.7 |
| 20260503181149 | 12 | 346 | 16.1 | 37.0 | 0.00 | 0.08 | 0.08 | 69 | 1013.7 |
| 20260503181049 | 12 | 334 | 16.1 | 35.4 | 0.00 | 0.08 | 0.08 | 69 | 1013.7 |
| 20260503180950 | 12 | 330 | 16.1 | 35.4 | 0.00 | 0.08 | 0.08 | 69 | 1013.7 |
| 20260503180842 | 12 | 317 | 16.1 | 35.4 | 0.00 | 0.08 | 0.08 | 69 | 1013.7 |
| 20260503180742 | 12 | 309 | 14.5 | 35.4 | 0.00 | 0.08 | 0.08 | 70 | 1013.8 |
| 20260503180645 | 12 | 312 | 14.5 | 32.2 | 0.00 | 0.08 | 0.08 | 70 | 1013.8 |
| 20260503180543 | 12 | 315 | 14.5 | 30.6 | 0.00 | 0.08 | 0.08 | 70 | 1013.6 |
| 20260503180443 | 12 | 312 | 12.9 | 30.6 | 0.00 | 0.08 | 0.08 | 70 | 1013.7 |
| 20260503180341 | 12 | 294 | 12.9 | 30.6 | 0.00 | 0.08 | 0.08 | 70 | 1013.8 |
| 20260503180238 | 12 | 27 | 12.9 | 30.6 | 0.00 | 0.08 | 0.08 | 70 | 1013.8 |
| 20260503180139 | 12 | 19 | 12.9 | 35.4 | 0.00 | 0.08 | 0.08 | 70 | 1013.8 |
| 20260503180039 | 12 | 354 | 14.5 | 37.0 | 0.00 | 0.08 | 0.08 | 70 | 1013.5 |
| 20260503175938 | 12 | 336 | 14.5 | 37.0 | 0.00 | 0.08 | 0.08 | 70 | 1013.7 |
| 20260503175836 | 12 | 338 | 14.5 | 37.0 | 0.00 | 0.08 | 0.08 | 70 | 1013.6 |
| 20260503175736 | 12 | 0 | 16.1 | 37.0 | 0.00 | 0.08 | 0.08 | 70 | 1013.7 |
| 20260503175636 | 12 | 27 | 17.7 | 37.0 | 0.00 | 0.08 | 0.08 | 70 | 1013.7 |
| 20260503175535 | 12 | 319 | 16.1 | 40.2 | 0.00 | 0.08 | 0.08 | 70 | 1013.4 |
| 20260503175436 | 12 | 325 | 17.7 | 40.2 | 0.00 | 0.08 | 0.08 | 70 | 1013.6 |
| 20260503175336 | 12 | 297 | 17.7 | 40.2 | 0.00 | 0.08 | 0.08 | 70 | 1013.6 |
| 20260503175236 | 12 | 54 | 17.7 | 40.2 | 0.00 | 0.08 | 0.08 | 70 | 1013.6 |
| 20260503175136 | 12 | 5 | 16.1 | 40.2 | 0.00 | 0.08 | 0.08 | 71 | 1013.7 |
| 20260503175036 | 12 | 299 | 16.1 | 40.2 | 0.00 | 0.08 | 0.08 | 71 | 1013.6 |
| 20260503174935 | 12 | 329 | 16.1 | 40.2 | 0.00 | 0.08 | 0.08 | 70 | 1013.5 |
| 20260503174836 | 12 | 299 | 16.1 | 40.2 | 0.00 | 0.08 | 0.08 | 70 | 1013.5 |
| 20260503174734 | 12 | 287 | 16.1 | 46.7 | 0.00 | 0.08 | 0.08 | 71 | 1013.4 |
| 20260503174632 | 12 | 283 | 14.5 | 46.7 | 0.00 | 0.08 | 0.08 | 71 | 1013.7 |
| 20260503174532 | 12 | 251 | 16.1 | 46.7 | 0.00 | 0.08 | 0.08 | 71 | 1013.6 |
| 20260503174431 | 12 | 323 | 17.7 | 46.7 | 0.00 | 0.08 | 0.08 | 71 | 1013.5 |
| 20260503174330 | 12 | 41 | 19.3 | 46.7 | 0.00 | 0.08 | 0.08 | 71 | 1013.6 |
| 20260503174230 | 12 | 313 | 19.3 | 46.7 | 0.00 | 0.08 | 0.08 | 71 | 1013.5 |
| 20260503174131 | 12 | 346 | 19.3 | 46.7 | 0.00 | 0.08 | 0.08 | 71 | 1013.7 |
| 20260503174030 | 12 | 343 | 20.9 | 46.7 | 0.00 | 0.08 | 0.08 | 71 | 1013.7 |
| 20260503173929 | 12 | 5 | 20.9 | 46.7 | 0.00 | 0.08 | 0.08 | 71 | 1013.8 |
| 20260503173830 | 12 | 303 | 20.9 | 46.7 | 0.00 | 0.08 | 0.08 | 71 | 1014.0 |
| 20260503173729 | 12 | 284 | 20.9 | 41.8 | 0.00 | 0.08 | 0.08 | 71 | 1013.7 |
| 20260503173632 | 12 | 274 | 22.5 | 41.8 | 0.00 | 0.08 | 0.08 | 71 | 1013.7 |
| 20260503173529 | 12 | 311 | 22.5 | 41.8 | 0.00 | 0.08 | 0.08 | 70 | 1014.1 |
| 20260503173430 | 12 | 346 | 20.9 | 41.8 | 0.00 | 0.08 | 0.08 | 70 | 1013.9 |
| 20260503173329 | 12 | 316 | 20.9 | 41.8 | 0.00 | 0.08 | 0.08 | 71 | 1014.2 |
| 20260503173230 | 12 | 263 | 22.5 | 49.9 | 0.00 | 0.08 | 0.08 | 71 | 1013.4 |
| 20260503173131 | 12 | 19 | 22.5 | 49.9 | 0.00 | 0.08 | 0.08 | 71 | 1013.7 |
| 20260503173029 | 12 | 261 | 20.9 | 49.9 | 0.00 | 0.08 | 0.08 | 71 | 1013.9 |
| 20260503172930 | 12 | 5 | 20.9 | 49.9 | 0.00 | 0.08 | 0.08 | 71 | 1013.9 |
| 20260503172832 | 12 | 303 | 20.9 | 49.9 | 0.00 | 0.08 | 0.08 | 71 | 1013.7 |
| 20260503172729 | 12 | 316 | 19.3 | 49.9 | 0.00 | 0.08 | 0.08 | 71 | 1013.8 |
| 20260503172629 | 12 | 333 | 19.3 | 49.9 | 0.00 | 0.08 | 0.08 | 70 | 1014.1 |
| 20260503172529 | 12 | 288 | 17.7 | 49.9 | 0.00 | 0.08 | 0.08 | 70 | 1013.7 |
| 20260503172424 | 12 | 301 | 17.7 | 49.9 | 0.00 | 0.08 | 0.08 | 70 | 1013.5 |
| 20260503172322 | 12 | 354 | 16.1 | 49.9 | 0.00 | 0.08 | 0.08 | 69 | 1013.7 |
| 20260503172222 | 12 | 0 | 16.1 | 32.2 | 0.00 | 0.08 | 0.08 | 69 | 1013.7 |
| 20260503172123 | 12 | 345 | 16.1 | 32.2 | 0.00 | 0.08 | 0.08 | 69 | 1013.7 |
| 20260503172022 | 12 | 10 | 19.3 | 48.3 | 0.00 | 0.08 | 0.08 | 69 | 1013.6 |
| 20260503171915 | 12 | 344 | 19.3 | 48.3 | 0.00 | 0.08 | 0.08 | 69 | 1013.4 |
| 20260503171816 | 12 | 324 | 19.3 | 48.3 | 0.00 | 0.08 | 0.08 | 69 | 1013.6 |
| 20260503171714 | 12 | 303 | 20.9 | 48.3 | 0.00 | 0.08 | 0.08 | 69 | 1013.5 |
| 20260503171615 | 12 | 330 | 24.1 | 48.3 | 0.00 | 0.08 | 0.08 | 69 | 1013.8 |
| 20260503171515 | 12 | 351 | 24.1 | 48.3 | 0.00 | 0.08 | 0.08 | 69 | 1013.7 |
| 20260503171408 | 12 | 329 | 24.1 | 48.3 | 0.00 | 0.08 | 0.08 | 69 | 1013.5 |
| 20260503171316 | 12 | 272 | 24.1 | 48.3 | 0.00 | 0.08 | 0.08 | 70 | 1013.5 |
| 20260503171208 | 12 | 280 | 24.1 | 48.3 | 0.00 | 0.08 | 0.08 | 70 | 1013.5 |
| 20260503171108 | 12 | 5 | 24.1 | 48.3 | 0.00 | 0.08 | 0.08 | 71 | 1013.6 |
| 20260503171009 | 12 | 10 | 24.1 | 46.7 | 0.00 | 0.08 | 0.08 | 71 | 1013.4 |
| 20260503170903 | 12 | 295 | 22.5 | 46.7 | 0.00 | 0.08 | 0.08 | 71 | 1013.5 |
| 20260503170803 | 12 | 275 | 20.9 | 46.7 | 0.00 | 0.08 | 0.08 | 71 | 1013.5 |
| 20260503170711 | 12 | 15 | 19.3 | 46.7 | 0.00 | 0.08 | 0.08 | 71 | 1013.3 |
| 20260503170603 | 12 | 274 | 19.3 | 46.7 | 0.00 | 0.08 | 0.08 | 70 | 1013.3 |
| 20260503170504 | 12 | 286 | 19.3 | 46.7 | 0.00 | 0.08 | 0.08 | 70 | 1013.1 |
| 20260503170403 | 12 | 328 | 17.7 | 46.7 | 0.00 | 0.08 | 0.08 | 70 | 1013.1 |
| 20260503170303 | 12 | 21 | 19.3 | 46.7 | 0.00 | 0.08 | 0.08 | 70 | 1012.8 |
| 20260503170207 | 12 | 0 | 19.3 | 46.7 | 0.00 | 0.08 | 0.08 | 70 | 1012.8 |
| 20260503170104 | 12 | 329 | 17.7 | 46.7 | 0.00 | 0.08 | 0.08 | 70 | 1013.1 |
| 20260503160159 | 12 | 304 | 19.3 | 41.8 | 0.00 | 0.08 | 0.08 | 71 | 1013.0 |
| 20260503150918 | 12 | 282 | 20.9 | 43.5 | 0.00 | 0.08 | 0.08 | 69 | 1012.7 |
| 20260503150812 | 12 | 313 | 20.9 | 43.5 | 0.00 | 0.08 | 0.08 | 69 | 1013.0 |
| 20260503150717 | 12 | 356 | 20.9 | 43.5 | 0.00 | 0.08 | 0.08 | 69 | 1012.9 |
| 20260503150612 | 12 | 317 | 20.9 | 43.5 | 0.00 | 0.08 | 0.08 | 69 | 1013.1 |
| 20260503150512 | 12 | 322 | 20.9 | 43.5 | 0.00 | 0.08 | 0.08 | 69 | 1013.2 |
| 20260503150412 | 12 | 315 | 20.9 | 43.5 | 0.00 | 0.08 | 0.08 | 69 | 1012.9 |
| 20260503150306 | 12 | 0 | 20.9 | 43.5 | 0.00 | 0.08 | 0.08 | 69 | 1012.8 |
| 20260503150206 | 12 | 338 | 20.9 | 43.5 | 0.00 | 0.08 | 0.08 | 69 | 1012.9 |
| 20260503150105 | 12 | 282 | 19.3 | 40.2 | 0.00 | 0.08 | 0.08 | 69 | 1012.9 |
| 20260503140232 | 12 | 344 | 19.3 | 41.8 | 0.00 | 0.08 | 0.08 | 68 | 1012.7 |
| 20260503140130 | 12 | 272 | 19.3 | 41.8 | 0.00 | 0.08 | 0.08 | 68 | 1012.5 |
| 20260503131402 | 13 | 253 | 19.3 | 37.0 | 0.00 | 0.08 | 0.08 | 63 | 1012.6 |
| 20260503131302 | 13 | 356 | 19.3 | 37.0 | 0.00 | 0.08 | 0.08 | 63 | 1012.6 |
| 20260503131204 | 13 | 317 | 19.3 | 38.6 | 0.00 | 0.08 | 0.08 | 62 | 1012.5 |
| 20260503131102 | 13 | 354 | 20.9 | 38.6 | 0.00 | 0.08 | 0.08 | 62 | 1012.8 |
| 20260503131003 | 13 | 336 | 19.3 | 38.6 | 0.00 | 0.08 | 0.08 | 62 | 1012.4 |
| 20260503130902 | 13 | 283 | 19.3 | 38.6 | 0.00 | 0.08 | 0.08 | 62 | 1012.6 |
| 20260503130802 | 13 | 18 | 19.3 | 38.6 | 0.00 | 0.08 | 0.08 | 63 | 1012.6 |
| 20260503130704 | 13 | 249 | 19.3 | 38.6 | 0.00 | 0.08 | 0.08 | 63 | 1012.5 |
| 20260503130604 | 13 | 293 | 19.3 | 40.2 | 0.00 | 0.08 | 0.08 | 63 | 1012.3 |
| 20260503130503 | 13 | 342 | 20.9 | 40.2 | 0.00 | 0.08 | 0.08 | 63 | 1012.5 |
| 20260503130404 | 13 | 0 | 20.9 | 40.2 | 0.00 | 0.08 | 0.08 | 63 | 1012.5 |
| 20260503130303 | 13 | 293 | 20.9 | 40.2 | 0.00 | 0.08 | 0.08 | 62 | 1012.5 |
| 20260503130202 | 13 | 308 | 20.9 | 40.2 | 0.00 | 0.08 | 0.08 | 61 | 1012.3 |
| 20260503120131 | 12 | 337 | 20.9 | 46.7 | 0.00 | 0.08 | 0.08 | 68 | 1012.6 |